Time,TemperatureF,DewpointF,PressureIn,WindDirection,WindDirectionDegrees,WindSpeedMPH,WindSpeedGustMPH,Humidity,HourlyPrecipIn,Conditions,Clouds,dailyrainin,SoftwareType,DateUTC
2013-11-18 00:00:00,51.2,45.6,30.02,ESE,123,0.0,2.0,81,0.00,,,0.18,WUHU216DAVISVP2,2013-11-18 08:00:00,
2013-11-18 00:01:00,51.2,45.6,30.02,NE,34,0.0,2.0,81,0.00,,,0.00,WUHU216DAVISVP2,2013-11-18 08:01:00,
2013-11-18 00:02:00,51.2,45.6,30.02,SE,139,0.0,2.0,81,0.00,,,0.00,WUHU216DAVISVP2,2013-11-18 08:02:00,
2013-11-18 00:05:00,51.2,45.6,30.01,SE,146,0.0,2.0,81,0.00,,,0.00,WUHU216DAVISVP2,2013-11-18 08:05:00,
2013-11-18 00:06:00,51.2,45.6,30.02,SW,218,0.0,2.0,81,0.00,,,0.00,WUHU216DAVISVP2,2013-11-18 08:06:00,
2013-11-18 00:08:00,51.3,45.7,30.02,East,89,0.0,2.0,81,0.00,,,0.00,WUHU216DAVISVP2,2013-11-18 08:08:00,
2013-11-18 00:11:00,51.3,45.4,30.02,SSE,160,1.0,3.0,80,0.00,,,0.00,WUHU216DAVISVP2,2013-11-18 08:11:00,
2013-11-18 00:12:00,51.3,45.4,30.02,South,176,0.0,3.0,80,0.00,,,0.00,WUHU216DAVISVP2,2013-11-18 08:12:00,
2013-11-18 00:13:00,51.4,45.4,30.02,SE,126,0.0,3.0,80,0.00,,,0.00,WUHU216DAVISVP2,2013-11-18 08:13:00,
2013-11-18 00:16:00,51.4,45.4,30.02,East,100,0.0,3.0,80,0.00,,,0.00,WUHU216DAVISVP2,2013-11-18 08:16:00,
2013-11-18 00:17:00,51.4,45.4,30.02,ESE,120,0.0,3.0,80,0.00,,,0.00,WUHU216DAVISVP2,2013-11-18 08:17:00,
2013-11-18 00:18:00,51.4,45.4,30.02,East,87,1.0,3.0,80,0.00,,,0.00,WUHU216DAVISVP2,2013-11-18 08:18:00,
2013-11-18 00:22:00,51.4,45.4,30.01,SSW,205,0.0,3.0,80,0.00,,,0.00,WUHU216DAVISVP2,2013-11-18 08:22:00,
2013-11-18 00:23:00,51.4,45.1,30.01,ESE,115,0.0,3.0,79,0.00,,,0.00,WUHU216DAVISVP2,2013-11-18 08:23:00,
2013-11-18 00:27:00,51.4,45.1,30.01,East,94,0.0,3.0,79,0.00,,,0.00,WUHU216DAVISVP2,2013-11-18 08:27:00,
2013-11-18 00:28:00,51.5,45.2,30.01,SSE,152,0.0,3.0,79,0.00,,,0.00,WUHU216DAVISVP2,2013-11-18 08:28:00,
2013-11-18 00:29:00,51.5,45.2,30.01,East,101,1.0,3.0,79,0.00,,,0.00,WUHU216DAVISVP2,2013-11-18 08:29:00,
2013-11-18 00:32:00,51.5,45.2,30.01,ENE,78,0.0,3.0,79,0.00,,,0.00,WUHU216DAVISVP2,2013-11-18 08:32:00,
2013-11-18 00:33:00,51.5,45.2,30.01,SSE,165,3.0,3.0,79,0.00,,,0.00,WUHU216DAVISVP2,2013-11-18 08:33:00,
2013-11-18 00:34:00,51.5,45.2,30.01,ESE,112,0.0,3.0,79,0.00,,,0.00,WUHU216DAVISVP2,2013-11-18 08:34:00,
2013-11-18 00:37:00,51.6,45.3,30.01,ESE,113,0.0,3.0,79,0.00,,,0.00,WUHU216DAVISVP2,2013-11-18 08:37:00,
2013-11-18 00:38:00,51.6,45.3,30.01,ESE,123,1.0,3.0,79,0.00,,,0.00,WUHU216DAVISVP2,2013-11-18 08:38:00,
2013-11-18 00:39:00,51.6,45.3,30.01,SSE,151,0.0,3.0,79,0.00,,,0.00,WUHU216DAVISVP2,2013-11-18 08:39:00,
2013-11-18 00:42:00,51.6,45.3,30.01,ESE,105,2.0,3.0,79,0.00,,,0.00,WUHU216DAVISVP2,2013-11-18 08:42:00,
2013-11-18 00:43:00,51.6,45.3,30.01,ESE,113,0.0,3.0,79,0.00,,,0.00,WUHU216DAVISVP2,2013-11-18 08:43:00,
2013-11-18 00:44:00,51.6,45.3,30.01,East,97,1.0,3.0,79,0.00,,,0.00,WUHU216DAVISVP2,2013-11-18 08:44:00,
2013-11-18 00:48:00,51.6,45.3,30.01,SE,134,0.0,3.0,79,0.00,,,0.00,WUHU216DAVISVP2,2013-11-18 08:48:00,
2013-11-18 00:49:00,51.6,45.3,30.01,SE,134,0.0,3.0,79,0.00,,,0.00,WUHU216DAVISVP2,2013-11-18 08:49:00,
2013-11-18 00:50:00,51.6,45.3,30.01,SE,139,0.0,3.0,79,0.00,,,0.00,WUHU216DAVISVP2,2013-11-18 08:50:00,
2013-11-18 00:53:00,51.6,45.3,30.01,South,182,1.0,3.0,79,0.00,,,0.00,WUHU216DAVISVP2,2013-11-18 08:53:00,
2013-11-18 00:54:00,51.6,45.3,30.01,ESE,113,0.0,3.0,79,0.00,,,0.00,WUHU216DAVISVP2,2013-11-18 08:54:00,
2013-11-18 00:55:00,51.6,45.3,30.01,SSE,153,1.0,3.0,79,0.00,,,0.00,WUHU216DAVISVP2,2013-11-18 08:55:00,
2013-11-18 00:58:00,51.6,45.3,30.01,ESE,115,0.0,3.0,79,0.00,,,0.00,WUHU216DAVISVP2,2013-11-18 08:58:00,
2013-11-18 00:59:00,51.6,45.3,30.01,SSE,165,0.0,3.0,79,0.00,,,0.00,WUHU216DAVISVP2,2013-11-18 08:59:00,
2013-11-18 01:01:00,51.5,45.2,30.01,SE,124,0.0,4.0,79,0.00,,,0.00,WUHU216DAVISVP2,2013-11-18 09:01:00,
2013-11-18 01:03:00,51.5,45.6,30.01,SSE,168,0.0,4.0,80,0.00,,,0.00,WUHU216DAVISVP2,2013-11-18 09:03:00,
2013-11-18 01:05:00,51.5,45.6,30.00,SSE,160,0.0,4.0,80,0.00,,,0.00,WUHU216DAVISVP2,2013-11-18 09:05:00,
2013-11-18 01:06:00,51.5,45.6,30.00,ESE,105,1.0,4.0,80,0.00,,,0.00,WUHU216DAVISVP2,2013-11-18 09:06:00,
2013-11-18 01:08:00,51.5,45.6,30.00,SSW,205,1.0,4.0,80,0.00,,,0.00,WUHU216DAVISVP2,2013-11-18 09:08:00,
2013-11-18 01:09:00,51.5,45.6,30.00,SE,142,1.0,4.0,80,0.00,,,0.00,WUHU216DAVISVP2,2013-11-18 09:09:00,
2013-11-18 01:10:00,51.6,45.7,30.00,ESE,115,0.0,4.0,80,0.00,,,0.00,WUHU216DAVISVP2,2013-11-18 09:10:00,
2013-11-18 01:11:00,51.5,45.6,30.00,SE,124,1.0,4.0,80,0.00,,,0.00,WUHU216DAVISVP2,2013-11-18 09:11:00,
2013-11-18 01:13:00,51.5,45.5,30.00,East,84,0.0,4.0,80,0.00,,,0.00,WUHU216DAVISVP2,2013-11-18 09:13:00,
2013-11-18 01:14:00,51.5,45.5,30.00,SE,134,0.0,4.0,80,0.00,,,0.00,WUHU216DAVISVP2,2013-11-18 09:14:00,
2013-11-18 01:15:00,51.5,45.9,30.00,South,188,0.0,4.0,81,0.00,,,0.00,WUHU216DAVISVP2,2013-11-18 09:15:00,
2013-11-18 01:16:00,51.6,46.0,30.00,SE,143,0.0,4.0,81,0.00,,,0.00,WUHU216DAVISVP2,2013-11-18 09:16:00,
2013-11-18 01:17:00,51.5,45.9,30.00,ESE,119,0.0,4.0,81,0.00,,,0.00,WUHU216DAVISVP2,2013-11-18 09:17:00,
2013-11-18 01:19:00,51.5,45.9,30.00,East,92,0.0,4.0,81,0.00,,,0.00,WUHU216DAVISVP2,2013-11-18 09:19:00,
2013-11-18 01:20:00,51.5,45.9,30.00,SSW,198,0.0,4.0,81,0.00,,,0.00,WUHU216DAVISVP2,2013-11-18 09:20:00,
2013-11-18 01:21:00,51.5,45.9,30.00,SSW,205,0.0,4.0,81,0.00,,,0.00,WUHU216DAVISVP2,2013-11-18 09:21:00,
2013-11-18 01:22:00,51.5,45.9,30.01,SSW,210,0.0,4.0,81,0.00,,,0.00,WUHU216DAVISVP2,2013-11-18 09:22:00,
2013-11-18 01:24:00,51.5,45.9,30.00,SW,222,0.0,3.0,81,0.00,,,0.00,WUHU216DAVISVP2,2013-11-18 09:24:00,
2013-11-18 01:25:00,51.4,46.1,30.00,ESE,123,1.0,3.0,82,0.00,,,0.00,WUHU216DAVISVP2,2013-11-18 09:25:00,
2013-11-18 01:26:00,51.4,46.1,30.00,East,94,1.0,2.0,82,0.00,,,0.00,WUHU216DAVISVP2,2013-11-18 09:26:00,
2013-11-18 01:27:00,51.4,46.1,30.00,ESE,115,0.0,2.0,82,0.00,,,0.00,WUHU216DAVISVP2,2013-11-18 09:27:00,
2013-11-18 01:29:00,51.4,46.1,30.00,SSE,160,0.0,2.0,82,0.00,,,0.00,WUHU216DAVISVP2,2013-11-18 09:29:00,
2013-11-18 01:30:00,51.4,46.1,30.00,SW,216,1.0,3.0,82,0.00,,,0.00,WUHU216DAVISVP2,2013-11-18 09:30:00,
2013-11-18 01:31:00,51.4,46.1,30.00,SE,140,0.0,3.0,82,0.00,,,0.00,WUHU216DAVISVP2,2013-11-18 09:31:00,
2013-11-18 01:32:00,51.4,46.1,30.00,SE,125,1.0,3.0,82,0.00,,,0.00,WUHU216DAVISVP2,2013-11-18 09:32:00,
2013-11-18 01:34:00,51.4,46.1,30.00,SSE,159,1.0,3.0,82,0.00,,,0.00,WUHU216DAVISVP2,2013-11-18 09:34:00,
2013-11-18 01:35:00,51.4,46.1,30.00,ESE,103,2.0,3.0,82,0.00,,,0.00,WUHU216DAVISVP2,2013-11-18 09:35:00,
2013-11-18 01:36:00,51.4,46.1,30.00,SW,226,2.0,3.0,82,0.00,,,0.00,WUHU216DAVISVP2,2013-11-18 09:36:00,
2013-11-18 01:37:00,51.4,46.1,30.00,South,190,1.0,3.0,82,0.00,,,0.00,WUHU216DAVISVP2,2013-11-18 09:37:00,
2013-11-18 01:40:00,51.4,46.1,30.00,SSE,148,0.0,3.0,82,0.00,,,0.00,WUHU216DAVISVP2,2013-11-18 09:40:00,
2013-11-18 01:42:00,51.4,46.4,30.00,ESE,113,0.0,3.0,83,0.00,,,0.00,WUHU216DAVISVP2,2013-11-18 09:42:00,
2013-11-18 01:43:00,51.4,46.4,30.00,ESE,110,0.0,3.0,83,0.00,,,0.00,WUHU216DAVISVP2,2013-11-18 09:43:00,
2013-11-18 01:45:00,51.4,46.4,30.00,SSE,168,0.0,3.0,83,0.00,,,0.00,WUHU216DAVISVP2,2013-11-18 09:45:00,
2013-11-18 01:47:00,51.4,46.4,30.00,SE,124,0.0,3.0,83,0.00,,,0.00,WUHU216DAVISVP2,2013-11-18 09:47:00,
2013-11-18 01:48:00,51.4,46.4,30.00,SSE,165,0.0,3.0,83,0.00,,,0.00,WUHU216DAVISVP2,2013-11-18 09:48:00,
2013-11-18 01:50:00,51.4,46.4,30.00,SE,129,1.0,3.0,83,0.00,,,0.00,WUHU216DAVISVP2,2013-11-18 09:50:00,
2013-11-18 01:51:00,51.4,46.4,30.00,SE,127,0.0,3.0,83,0.00,,,0.00,WUHU216DAVISVP2,2013-11-18 09:51:00,
2013-11-18 01:52:00,51.4,46.4,30.00,East,101,0.0,3.0,83,0.00,,,0.00,WUHU216DAVISVP2,2013-11-18 09:52:00,
2013-11-18 01:53:00,51.4,46.4,30.00,ESE,115,1.0,3.0,83,0.00,,,0.00,WUHU216DAVISVP2,2013-11-18 09:53:00,
2013-11-18 01:55:00,51.4,46.4,30.00,SSE,162,1.0,3.0,83,0.00,,,0.00,WUHU216DAVISVP2,2013-11-18 09:55:00,
2013-11-18 01:56:00,51.4,46.4,30.00,SSE,165,0.0,3.0,83,0.00,,,0.00,WUHU216DAVISVP2,2013-11-18 09:56:00,
2013-11-18 01:57:00,51.4,46.4,30.00,ESE,113,0.0,3.0,83,0.00,,,0.00,WUHU216DAVISVP2,2013-11-18 09:57:00,
2013-11-18 01:58:00,51.4,46.4,30.00,ESE,120,0.0,3.0,83,0.00,,,0.00,WUHU216DAVISVP2,2013-11-18 09:58:00,
2013-11-18 02:00:00,51.4,46.4,30.00,SE,126,0.0,3.0,83,0.00,,,0.00,WUHU216DAVISVP2,2013-11-18 10:00:00,
2013-11-18 02:01:00,51.4,46.4,30.00,SSE,163,0.0,3.0,83,0.00,,,0.00,WUHU216DAVISVP2,2013-11-18 10:01:00,
2013-11-18 02:02:00,51.4,46.4,30.00,ESE,122,0.0,3.0,83,0.00,,,0.00,WUHU216DAVISVP2,2013-11-18 10:02:00,
2013-11-18 02:03:00,51.4,46.4,30.01,South,184,1.0,3.0,83,0.00,,,0.00,WUHU216DAVISVP2,2013-11-18 10:03:00,
2013-11-18 02:06:00,51.4,46.4,30.00,SE,138,0.0,2.0,83,0.00,,,0.00,WUHU216DAVISVP2,2013-11-18 10:06:00,
2013-11-18 02:07:00,51.4,46.4,30.01,East,86,2.0,2.0,83,0.00,,,0.00,WUHU216DAVISVP2,2013-11-18 10:07:00,
2013-11-18 02:08:00,51.4,46.4,30.01,SE,127,0.0,2.0,83,0.00,,,0.00,WUHU216DAVISVP2,2013-11-18 10:08:00,
2013-11-18 02:09:00,51.4,46.4,30.01,East,98,0.0,3.0,83,0.00,,,0.00,WUHU216DAVISVP2,2013-11-18 10:09:00,
2013-11-18 02:11:00,51.4,46.4,30.01,South,171,0.0,3.0,83,0.00,,,0.00,WUHU216DAVISVP2,2013-11-18 10:11:00,
2013-11-18 02:13:00,51.4,46.4,30.01,ESE,112,1.0,3.0,83,0.00,,,0.00,WUHU216DAVISVP2,2013-11-18 10:13:00,
2013-11-18 02:15:00,51.5,46.5,30.00,South,181,0.0,3.0,83,0.00,,,0.00,WUHU216DAVISVP2,2013-11-18 10:15:00,
2013-11-18 02:16:00,51.5,46.5,30.00,SSE,148,0.0,3.0,83,0.00,,,0.00,WUHU216DAVISVP2,2013-11-18 10:16:00,
2013-11-18 02:18:00,51.5,46.5,30.00,ESE,120,0.0,3.0,83,0.00,,,0.00,WUHU216DAVISVP2,2013-11-18 10:18:00,
2013-11-18 02:19:00,51.5,46.5,30.00,ENE,62,0.0,3.0,83,0.00,,,0.00,WUHU216DAVISVP2,2013-11-18 10:19:00,
2013-11-18 02:20:00,51.5,46.5,30.00,SE,136,0.0,3.0,83,0.00,,,0.00,WUHU216DAVISVP2,2013-11-18 10:20:00,
2013-11-18 02:21:00,51.5,46.5,30.00,SE,142,0.0,3.0,83,0.00,,,0.00,WUHU216DAVISVP2,2013-11-18 10:21:00,
2013-11-18 02:22:00,51.5,46.5,30.00,SE,126,0.0,3.0,83,0.00,,,0.00,WUHU216DAVISVP2,2013-11-18 10:22:00,
2013-11-18 02:23:00,51.5,46.5,30.00,WSW,243,0.0,3.0,83,0.00,,,0.00,WUHU216DAVISVP2,2013-11-18 10:23:00,
2013-11-18 02:24:00,51.5,46.5,30.00,ESE,117,1.0,3.0,83,0.00,,,0.00,WUHU216DAVISVP2,2013-11-18 10:24:00,
2013-11-18 02:25:00,51.5,46.2,30.00,ESE,107,0.0,3.0,82,0.00,,,0.00,WUHU216DAVISVP2,2013-11-18 10:25:00,
2013-11-18 02:26:00,51.6,46.3,30.00,ESE,109,0.0,3.0,82,0.00,,,0.00,WUHU216DAVISVP2,2013-11-18 10:26:00,
2013-11-18 02:27:00,51.5,46.2,30.00,SE,143,0.0,3.0,82,0.00,,,0.00,WUHU216DAVISVP2,2013-11-18 10:27:00,
2013-11-18 02:28:00,51.5,46.5,30.01,SSE,148,0.0,2.0,83,0.00,,,0.00,WUHU216DAVISVP2,2013-11-18 10:28:00,
2013-11-18 02:30:00,51.5,46.5,30.00,SSE,154,0.0,2.0,83,0.00,,,0.00,WUHU216DAVISVP2,2013-11-18 10:30:00,
2013-11-18 02:31:00,51.5,46.5,30.00,SSE,150,0.0,2.0,83,0.00,,,0.00,WUHU216DAVISVP2,2013-11-18 10:31:00,
2013-11-18 02:32:00,51.5,46.5,30.00,SSE,148,0.0,2.0,83,0.00,,,0.00,WUHU216DAVISVP2,2013-11-18 10:32:00,
2013-11-18 02:33:00,51.5,46.5,30.00,South,174,0.0,2.0,83,0.00,,,0.00,WUHU216DAVISVP2,2013-11-18 10:33:00,
2013-11-18 02:34:00,51.5,46.5,30.00,SE,130,1.0,2.0,83,0.00,,,0.00,WUHU216DAVISVP2,2013-11-18 10:34:00,
2013-11-18 02:36:00,51.5,46.5,30.01,SW,220,0.0,2.0,83,0.00,,,0.00,WUHU216DAVISVP2,2013-11-18 10:36:00,
2013-11-18 02:37:00,51.6,46.6,30.00,East,93,0.0,2.0,83,0.00,,,0.00,WUHU216DAVISVP2,2013-11-18 10:37:00,
2013-11-18 02:39:00,51.6,46.6,30.00,SSE,159,0.0,2.0,83,0.00,,,0.00,WUHU216DAVISVP2,2013-11-18 10:39:00,
2013-11-18 02:41:00,51.6,46.6,30.00,SE,145,0.0,2.0,83,0.00,,,0.00,WUHU216DAVISVP2,2013-11-18 10:41:00,
2013-11-18 02:42:00,51.6,46.3,30.00,South,188,0.0,2.0,82,0.00,,,0.00,WUHU216DAVISVP2,2013-11-18 10:42:00,
2013-11-18 02:44:00,51.6,46.6,30.00,SSE,153,0.0,2.0,83,0.00,,,0.00,WUHU216DAVISVP2,2013-11-18 10:44:00,
2013-11-18 02:46:00,51.6,46.6,30.00,SSE,167,0.0,2.0,83,0.00,,,0.00,WUHU216DAVISVP2,2013-11-18 10:46:00,
2013-11-18 02:47:00,51.5,46.5,30.00,ESE,110,0.0,2.0,83,0.00,,,0.00,WUHU216DAVISVP2,2013-11-18 10:47:00,
2013-11-18 02:49:00,51.5,46.5,30.00,SE,141,0.0,2.0,83,0.00,,,0.00,WUHU216DAVISVP2,2013-11-18 10:49:00,
2013-11-18 02:50:00,51.5,46.5,30.00,South,183,0.0,2.0,83,0.00,,,0.00,WUHU216DAVISVP2,2013-11-18 10:50:00,
2013-11-18 02:51:00,51.5,46.5,30.00,SSE,150,0.0,2.0,83,0.00,,,0.00,WUHU216DAVISVP2,2013-11-18 10:51:00,
2013-11-18 02:52:00,51.5,46.5,30.00,SSE,150,0.0,2.0,83,0.00,,,0.00,WUHU216DAVISVP2,2013-11-18 10:52:00,
2013-11-18 02:54:00,51.5,46.5,30.00,East,99,0.0,2.0,83,0.00,,,0.00,WUHU216DAVISVP2,2013-11-18 10:54:00,
2013-11-18 02:55:00,51.5,46.5,30.00,South,179,0.0,2.0,83,0.00,,,0.00,WUHU216DAVISVP2,2013-11-18 10:55:00,
2013-11-18 02:56:00,51.5,46.5,30.01,South,174,0.0,2.0,83,0.00,,,0.00,WUHU216DAVISVP2,2013-11-18 10:56:00,
2013-11-18 02:57:00,51.5,46.5,30.01,East,99,0.0,2.0,83,0.00,,,0.00,WUHU216DAVISVP2,2013-11-18 10:57:00,
2013-11-18 02:58:00,51.5,46.5,30.01,East,90,0.0,2.0,83,0.00,,,0.00,WUHU216DAVISVP2,2013-11-18 10:58:00,
2013-11-18 02:59:00,51.5,46.5,30.01,SSW,195,0.0,2.0,83,0.00,,,0.00,WUHU216DAVISVP2,2013-11-18 10:59:00,
2013-11-18 03:00:00,51.5,46.5,30.01,SSE,164,0.0,2.0,83,0.00,,,0.00,WUHU216DAVISVP2,2013-11-18 11:00:00,
2013-11-18 03:01:00,51.4,46.4,30.01,ESE,115,0.0,2.0,83,0.00,,,0.00,WUHU216DAVISVP2,2013-11-18 11:01:00,
2013-11-18 03:02:00,51.4,46.4,30.01,South,188,0.0,2.0,83,0.00,,,0.00,WUHU216DAVISVP2,2013-11-18 11:02:00,
2013-11-18 03:03:00,51.4,46.4,30.00,SE,135,0.0,2.0,83,0.00,,,0.00,WUHU216DAVISVP2,2013-11-18 11:03:00,
2013-11-18 03:05:00,51.5,46.5,30.00,ESE,120,0.0,1.0,83,0.00,,,0.00,WUHU216DAVISVP2,2013-11-18 11:05:00,
2013-11-18 03:06:00,51.4,46.4,30.00,ESE,120,0.0,1.0,83,0.00,,,0.00,WUHU216DAVISVP2,2013-11-18 11:06:00,
2013-11-18 03:07:00,51.4,46.4,30.00,ESE,114,0.0,1.0,83,0.00,,,0.00,WUHU216DAVISVP2,2013-11-18 11:07:00,
2013-11-18 03:08:00,51.5,46.5,30.00,SSE,154,1.0,3.0,83,0.00,,,0.00,WUHU216DAVISVP2,2013-11-18 11:08:00,
2013-11-18 03:10:00,51.5,46.5,30.00,South,179,0.0,3.0,83,0.00,,,0.00,WUHU216DAVISVP2,2013-11-18 11:10:00,
2013-11-18 03:11:00,51.5,46.5,30.00,SSE,155,0.0,3.0,83,0.00,,,0.00,WUHU216DAVISVP2,2013-11-18 11:11:00,
2013-11-18 03:12:00,51.5,46.5,30.00,SE,139,0.0,3.0,83,0.00,,,0.00,WUHU216DAVISVP2,2013-11-18 11:12:00,
2013-11-18 03:13:00,51.5,46.5,30.00,South,176,1.0,3.0,83,0.00,,,0.00,WUHU216DAVISVP2,2013-11-18 11:13:00,
2013-11-18 03:15:00,51.5,46.5,30.00,SE,138,0.0,3.0,83,0.00,,,0.00,WUHU216DAVISVP2,2013-11-18 11:15:00,
2013-11-18 03:16:00,51.5,46.5,30.00,SE,141,0.0,3.0,83,0.00,,,0.00,WUHU216DAVISVP2,2013-11-18 11:16:00,
2013-11-18 03:17:00,51.5,46.5,30.00,SSW,192,1.0,3.0,83,0.00,,,0.00,WUHU216DAVISVP2,2013-11-18 11:17:00,
2013-11-18 03:19:00,51.5,46.5,30.00,ESE,121,0.0,3.0,83,0.00,,,0.00,WUHU216DAVISVP2,2013-11-18 11:19:00,
2013-11-18 03:21:00,51.5,46.5,30.00,ESE,109,0.0,3.0,83,0.00,,,0.00,WUHU216DAVISVP2,2013-11-18 11:21:00,
2013-11-18 03:22:00,51.5,46.8,30.00,SE,125,0.0,3.0,84,0.00,,,0.00,WUHU216DAVISVP2,2013-11-18 11:22:00,
2013-11-18 03:23:00,51.5,46.8,30.00,ESE,112,0.0,3.0,84,0.00,,,0.00,WUHU216DAVISVP2,2013-11-18 11:23:00,
2013-11-18 03:24:00,51.5,46.8,30.00,South,174,0.0,3.0,84,0.00,,,0.00,WUHU216DAVISVP2,2013-11-18 11:24:00,
2013-11-18 03:26:00,51.5,46.8,30.00,East,101,0.0,3.0,84,0.00,,,0.00,WUHU216DAVISVP2,2013-11-18 11:26:00,
2013-11-18 03:27:00,51.5,46.5,30.00,SE,139,0.0,3.0,83,0.00,,,0.00,WUHU216DAVISVP2,2013-11-18 11:27:00,
2013-11-18 03:28:00,51.5,46.8,30.00,East,96,0.0,3.0,84,0.00,,,0.00,WUHU216DAVISVP2,2013-11-18 11:28:00,
2013-11-18 03:29:00,51.5,46.8,30.00,ESE,120,0.0,3.0,84,0.00,,,0.00,WUHU216DAVISVP2,2013-11-18 11:29:00,
2013-11-18 03:31:00,51.5,46.8,30.00,SSE,166,0.0,3.0,84,0.00,,,0.00,WUHU216DAVISVP2,2013-11-18 11:31:00,
2013-11-18 03:32:00,51.5,46.8,29.99,SSE,153,0.0,3.0,84,0.00,,,0.00,WUHU216DAVISVP2,2013-11-18 11:32:00,
2013-11-18 03:33:00,51.5,46.8,30.00,SE,138,0.0,3.0,84,0.00,,,0.00,WUHU216DAVISVP2,2013-11-18 11:33:00,
2013-11-18 03:34:00,51.5,46.8,30.00,SW,223,0.0,3.0,84,0.00,,,0.00,WUHU216DAVISVP2,2013-11-18 11:34:00,
2013-11-18 03:35:00,51.5,46.8,29.99,NNE,27,0.0,3.0,84,0.00,,,0.00,WUHU216DAVISVP2,2013-11-18 11:35:00,
2013-11-18 03:37:00,51.5,46.8,30.00,ESE,115,0.0,3.0,84,0.00,,,0.00,WUHU216DAVISVP2,2013-11-18 11:37:00,
2013-11-18 03:38:00,51.5,46.8,30.00,SSE,150,0.0,3.0,84,0.00,,,0.00,WUHU216DAVISVP2,2013-11-18 11:38:00,
2013-11-18 03:39:00,51.5,46.8,30.00,SE,146,0.0,3.0,84,0.00,,,0.00,WUHU216DAVISVP2,2013-11-18 11:39:00,
2013-11-18 03:41:00,51.5,46.8,29.99,East,98,0.0,3.0,84,0.00,,,0.00,WUHU216DAVISVP2,2013-11-18 11:41:00,
2013-11-18 03:42:00,51.5,46.8,29.99,WNW,284,0.0,3.0,84,0.00,,,0.00,WUHU216DAVISVP2,2013-11-18 11:42:00,
2013-11-18 03:43:00,51.5,46.8,29.99,ESE,115,0.0,3.0,84,0.00,,,0.00,WUHU216DAVISVP2,2013-11-18 11:43:00,
2013-11-18 03:44:00,51.5,46.8,29.99,SE,128,0.0,3.0,84,0.00,,,0.00,WUHU216DAVISVP2,2013-11-18 11:44:00,
2013-11-18 03:46:00,51.5,46.8,29.99,SE,132,0.0,3.0,84,0.00,,,0.00,WUHU216DAVISVP2,2013-11-18 11:46:00,
2013-11-18 03:47:00,51.5,46.8,29.99,ESE,105,0.0,3.0,84,0.00,,,0.00,WUHU216DAVISVP2,2013-11-18 11:47:00,
2013-11-18 03:48:00,51.5,46.8,29.99,SE,138,0.0,3.0,84,0.00,,,0.00,WUHU216DAVISVP2,2013-11-18 11:48:00,
2013-11-18 03:49:00,51.6,46.9,29.99,South,175,1.0,3.0,84,0.00,,,0.00,WUHU216DAVISVP2,2013-11-18 11:49:00,
2013-11-18 03:51:00,51.6,46.9,29.99,ESE,115,1.0,3.0,84,0.00,,,0.00,WUHU216DAVISVP2,2013-11-18 11:51:00,
2013-11-18 03:52:00,51.5,46.8,29.99,East,85,0.0,3.0,84,0.00,,,0.00,WUHU216DAVISVP2,2013-11-18 11:52:00,
2013-11-18 03:53:00,51.5,46.8,29.99,ESE,116,0.0,3.0,84,0.00,,,0.00,WUHU216DAVISVP2,2013-11-18 11:53:00,
2013-11-18 03:54:00,51.5,46.8,29.99,ESE,116,0.0,3.0,84,0.00,,,0.00,WUHU216DAVISVP2,2013-11-18 11:54:00,
2013-11-18 03:55:00,51.6,46.9,29.99,East,89,1.0,3.0,84,0.00,,,0.00,WUHU216DAVISVP2,2013-11-18 11:55:00,
2013-11-18 03:56:00,51.6,46.9,29.99,SE,131,0.0,6.0,84,0.00,,,0.00,WUHU216DAVISVP2,2013-11-18 11:56:00,
2013-11-18 03:57:00,51.6,46.9,29.99,South,179,1.0,6.0,84,0.00,,,0.00,WUHU216DAVISVP2,2013-11-18 11:57:00,
2013-11-18 03:58:00,51.6,46.9,29.99,East,97,0.0,6.0,84,0.00,,,0.00,WUHU216DAVISVP2,2013-11-18 11:58:00,
2013-11-18 03:59:00,51.6,46.9,29.99,ESE,105,0.0,6.0,84,0.00,,,0.00,WUHU216DAVISVP2,2013-11-18 11:59:00,
2013-11-18 04:00:00,51.6,46.9,29.98,SSW,206,0.0,6.0,84,0.00,,,0.00,WUHU216DAVISVP2,2013-11-18 12:00:00,
2013-11-18 04:01:00,51.6,46.9,29.98,SE,125,0.0,6.0,84,0.00,,,0.00,WUHU216DAVISVP2,2013-11-18 12:01:00,
2013-11-18 04:02:00,51.6,46.9,29.98,SE,130,0.0,6.0,84,0.00,,,0.00,WUHU216DAVISVP2,2013-11-18 12:02:00,
2013-11-18 04:03:00,51.6,46.9,29.98,East,89,2.0,6.0,84,0.00,,,0.00,WUHU216DAVISVP2,2013-11-18 12:03:00,
2013-11-18 04:04:00,51.6,46.9,29.98,SSW,199,0.0,6.0,84,0.00,,,0.00,WUHU216DAVISVP2,2013-11-18 12:04:00,
2013-11-18 04:05:00,51.6,46.9,29.98,ESE,115,0.0,6.0,84,0.00,,,0.00,WUHU216DAVISVP2,2013-11-18 12:05:00,
2013-11-18 04:07:00,51.6,46.9,29.98,SSE,164,0.0,6.0,84,0.00,,,0.00,WUHU216DAVISVP2,2013-11-18 12:07:00,
2013-11-18 04:08:00,51.6,46.9,29.98,ESE,109,0.0,6.0,84,0.00,,,0.00,WUHU216DAVISVP2,2013-11-18 12:08:00,
2013-11-18 04:09:00,51.6,46.9,29.98,SE,128,0.0,6.0,84,0.00,,,0.00,WUHU216DAVISVP2,2013-11-18 12:09:00,
2013-11-18 04:10:00,51.6,46.9,29.98,SSE,148,1.0,6.0,84,0.00,,,0.00,WUHU216DAVISVP2,2013-11-18 12:10:00,
2013-11-18 04:12:00,51.6,46.9,29.98,ESE,122,0.0,6.0,84,0.00,,,0.00,WUHU216DAVISVP2,2013-11-18 12:12:00,
2013-11-18 04:13:00,51.6,46.9,29.98,SE,142,0.0,6.0,84,0.00,,,0.00,WUHU216DAVISVP2,2013-11-18 12:13:00,
2013-11-18 04:15:00,51.6,46.9,29.98,SE,141,0.0,4.0,84,0.00,,,0.00,WUHU216DAVISVP2,2013-11-18 12:15:00,
2013-11-18 04:16:00,51.6,46.9,29.98,ESE,113,0.0,4.0,84,0.00,,,0.00,WUHU216DAVISVP2,2013-11-18 12:16:00,
2013-11-18 04:17:00,51.6,46.9,29.98,SSE,150,0.0,4.0,84,0.00,,,0.00,WUHU216DAVISVP2,2013-11-18 12:17:00,
2013-11-18 04:18:00,51.6,46.9,29.98,East,100,1.0,4.0,84,0.00,,,0.00,WUHU216DAVISVP2,2013-11-18 12:18:00,
2013-11-18 04:19:00,51.6,46.9,29.98,South,174,0.0,4.0,84,0.00,,,0.00,WUHU216DAVISVP2,2013-11-18 12:19:00,
2013-11-18 04:20:00,51.6,46.9,29.98,ESE,118,0.0,4.0,84,0.00,,,0.00,WUHU216DAVISVP2,2013-11-18 12:20:00,
2013-11-18 04:21:00,51.6,46.9,29.98,WSW,246,0.0,4.0,84,0.00,,,0.00,WUHU216DAVISVP2,2013-11-18 12:21:00,
2013-11-18 04:22:00,51.6,46.9,29.98,SE,136,1.0,4.0,84,0.00,,,0.00,WUHU216DAVISVP2,2013-11-18 12:22:00,
2013-11-18 04:23:00,51.6,46.9,29.98,South,182,0.0,4.0,84,0.00,,,0.00,WUHU216DAVISVP2,2013-11-18 12:23:00,
2013-11-18 04:24:00,51.5,46.8,29.98,SE,132,0.0,4.0,84,0.00,,,0.00,WUHU216DAVISVP2,2013-11-18 12:24:00,
2013-11-18 04:25:00,51.5,46.8,29.98,SE,144,1.0,4.0,84,0.00,,,0.00,WUHU216DAVISVP2,2013-11-18 12:25:00,
2013-11-18 04:26:00,51.5,46.8,29.98,SSW,194,1.0,4.0,84,0.00,,,0.00,WUHU216DAVISVP2,2013-11-18 12:26:00,
2013-11-18 04:27:00,51.5,47.1,29.98,ESE,115,2.0,2.0,85,0.00,,,0.00,WUHU216DAVISVP2,2013-11-18 12:27:00,
2013-11-18 04:28:00,51.5,47.1,29.98,ESE,118,0.0,3.0,85,0.00,,,0.00,WUHU216DAVISVP2,2013-11-18 12:28:00,
2013-11-18 04:29:00,51.5,47.1,29.98,SE,129,0.0,3.0,85,0.00,,,0.00,WUHU216DAVISVP2,2013-11-18 12:29:00,
2013-11-18 04:30:00,51.4,47.3,29.98,ESE,109,0.0,3.0,86,0.00,,,0.00,WUHU216DAVISVP2,2013-11-18 12:30:00,
2013-11-18 04:31:00,51.4,47.3,29.98,SSW,200,0.0,3.0,86,0.00,,,0.00,WUHU216DAVISVP2,2013-11-18 12:31:00,
2013-11-18 04:32:00,51.4,47.3,29.98,ESE,120,1.0,3.0,86,0.00,,,0.00,WUHU216DAVISVP2,2013-11-18 12:32:00,
2013-11-18 04:34:00,51.3,47.2,29.98,SE,143,1.0,3.0,86,0.00,,,0.00,WUHU216DAVISVP2,2013-11-18 12:34:00,
2013-11-18 04:36:00,51.2,47.1,29.98,SE,134,0.0,3.0,86,0.00,,,0.00,WUHU216DAVISVP2,2013-11-18 12:36:00,
2013-11-18 04:37:00,51.1,47.0,29.98,SE,144,1.0,3.0,86,0.00,,,0.00,WUHU216DAVISVP2,2013-11-18 12:37:00,
2013-11-18 04:39:00,51.1,47.3,29.98,ESE,117,0.0,3.0,87,0.00,,,0.00,WUHU216DAVISVP2,2013-11-18 12:39:00,
2013-11-18 04:41:00,51.1,47.3,29.98,ESE,122,0.0,3.0,87,0.00,,,0.00,WUHU216DAVISVP2,2013-11-18 12:41:00,
2013-11-18 04:42:00,51.0,47.2,29.98,ESE,121,0.0,3.0,87,0.00,,,0.00,WUHU216DAVISVP2,2013-11-18 12:42:00,
2013-11-18 04:44:00,51.0,47.2,29.98,East,91,0.0,3.0,87,0.00,,,0.00,WUHU216DAVISVP2,2013-11-18 12:44:00,
2013-11-18 04:45:00,51.0,47.2,29.98,South,170,0.0,3.0,87,0.00,,,0.00,WUHU216DAVISVP2,2013-11-18 12:45:00,
2013-11-18 04:46:00,51.0,47.2,29.98,East,83,0.0,3.0,87,0.00,,,0.00,WUHU216DAVISVP2,2013-11-18 12:46:00,
2013-11-18 04:47:00,51.0,47.2,29.98,SW,216,0.0,2.0,87,0.00,,,0.00,WUHU216DAVISVP2,2013-11-18 12:47:00,
2013-11-18 04:49:00,51.0,47.2,29.98,SSE,147,0.0,2.0,87,0.00,,,0.00,WUHU216DAVISVP2,2013-11-18 12:49:00,
2013-11-18 04:50:00,51.0,47.2,29.98,ESE,122,0.0,2.0,87,0.00,,,0.00,WUHU216DAVISVP2,2013-11-18 12:50:00,
2013-11-18 04:51:00,51.0,47.2,29.98,South,191,0.0,2.0,87,0.00,,,0.00,WUHU216DAVISVP2,2013-11-18 12:51:00,
2013-11-18 04:53:00,51.0,47.3,29.98,SSE,148,0.0,2.0,87,0.00,,,0.00,WUHU216DAVISVP2,2013-11-18 12:53:00,
2013-11-18 04:54:00,51.0,47.3,29.98,SSE,148,0.0,2.0,87,0.00,,,0.00,WUHU216DAVISVP2,2013-11-18 12:54:00,
2013-11-18 04:55:00,51.0,47.3,29.98,SE,132,0.0,2.0,87,0.00,,,0.00,WUHU216DAVISVP2,2013-11-18 12:55:00,
2013-11-18 04:56:00,51.0,47.3,29.98,SE,133,0.0,2.0,87,0.00,,,0.00,WUHU216DAVISVP2,2013-11-18 12:56:00,
2013-11-18 04:58:00,51.0,47.3,29.98,ESE,114,0.0,2.0,87,0.00,,,0.00,WUHU216DAVISVP2,2013-11-18 12:58:00,
2013-11-18 04:59:00,51.0,47.3,29.97,NE,51,0.0,3.0,87,0.00,,,0.00,WUHU216DAVISVP2,2013-11-18 12:59:00,
2013-11-18 05:00:00,51.0,47.3,29.97,SE,131,1.0,3.0,87,0.00,,,0.00,WUHU216DAVISVP2,2013-11-18 13:00:00,
2013-11-18 05:02:00,51.0,47.3,29.97,SE,132,0.0,3.0,87,0.00,,,0.00,WUHU216DAVISVP2,2013-11-18 13:02:00,
2013-11-18 05:03:00,51.0,47.3,29.97,South,176,0.0,3.0,87,0.00,,,0.00,WUHU216DAVISVP2,2013-11-18 13:03:00,
2013-11-18 05:05:00,51.0,47.2,29.97,SE,124,0.0,3.0,87,0.00,,,0.00,WUHU216DAVISVP2,2013-11-18 13:05:00,
2013-11-18 05:06:00,51.0,47.2,29.98,SSE,158,0.0,3.0,87,0.00,,,0.00,WUHU216DAVISVP2,2013-11-18 13:06:00,
2013-11-18 05:07:00,51.0,47.2,29.98,SE,141,0.0,3.0,87,0.00,,,0.00,WUHU216DAVISVP2,2013-11-18 13:07:00,
2013-11-18 05:08:00,51.0,47.2,29.97,SE,141,0.0,3.0,87,0.00,,,0.00,WUHU216DAVISVP2,2013-11-18 13:08:00,
2013-11-18 05:10:00,51.0,47.2,29.97,SE,141,0.0,3.0,87,0.00,,,0.00,WUHU216DAVISVP2,2013-11-18 13:10:00,
2013-11-18 05:11:00,51.0,47.2,29.97,SE,141,0.0,3.0,87,0.00,,,0.00,WUHU216DAVISVP2,2013-11-18 13:11:00,
2013-11-18 05:12:00,51.0,47.2,29.97,ESE,119,0.0,3.0,87,0.00,,,0.00,WUHU216DAVISVP2,2013-11-18 13:12:00,
2013-11-18 05:13:00,51.0,47.2,29.98,SSE,151,0.0,3.0,87,0.00,,,0.00,WUHU216DAVISVP2,2013-11-18 13:13:00,
2013-11-18 05:15:00,51.0,47.2,29.98,ESE,113,0.0,3.0,87,0.00,,,0.00,WUHU216DAVISVP2,2013-11-18 13:15:00,
2013-11-18 05:16:00,51.0,47.2,29.97,ESE,117,0.0,3.0,87,0.00,,,0.00,WUHU216DAVISVP2,2013-11-18 13:16:00,
2013-11-18 05:18:00,51.0,47.2,29.97,ESE,123,0.0,2.0,87,0.00,,,0.00,WUHU216DAVISVP2,2013-11-18 13:18:00,
2013-11-18 05:19:00,51.0,47.2,29.97,East,98,0.0,2.0,87,0.00,,,0.00,WUHU216DAVISVP2,2013-11-18 13:19:00,
2013-11-18 05:20:00,51.0,47.2,29.97,ESE,114,0.0,2.0,87,0.00,,,0.00,WUHU216DAVISVP2,2013-11-18 13:20:00,
2013-11-18 05:21:00,51.0,47.2,29.97,ESE,114,0.0,2.0,87,0.00,,,0.00,WUHU216DAVISVP2,2013-11-18 13:21:00,
2013-11-18 05:22:00,51.0,47.2,29.97,ESE,114,0.0,2.0,87,0.00,,,0.00,WUHU216DAVISVP2,2013-11-18 13:22:00,
2013-11-18 05:24:00,51.0,47.2,29.97,ESE,114,0.0,2.0,87,0.00,,,0.00,WUHU216DAVISVP2,2013-11-18 13:24:00,
2013-11-18 05:25:00,51.0,47.2,29.97,SE,127,0.0,2.0,87,0.00,,,0.00,WUHU216DAVISVP2,2013-11-18 13:25:00,
2013-11-18 05:26:00,51.0,47.2,29.97,East,95,2.0,2.0,87,0.00,,,0.00,WUHU216DAVISVP2,2013-11-18 13:26:00,
2013-11-18 05:27:00,51.0,47.2,29.97,SE,125,0.0,2.0,87,0.00,,,0.00,WUHU216DAVISVP2,2013-11-18 13:27:00,
2013-11-18 05:29:00,51.0,47.2,29.97,SE,124,0.0,2.0,87,0.00,,,0.00,WUHU216DAVISVP2,2013-11-18 13:29:00,
2013-11-18 05:31:00,51.0,47.2,29.97,SE,124,0.0,2.0,87,0.00,,,0.00,WUHU216DAVISVP2,2013-11-18 13:31:00,
2013-11-18 05:32:00,51.0,47.2,29.97,SE,131,0.0,2.0,87,0.00,,,0.00,WUHU216DAVISVP2,2013-11-18 13:32:00,
2013-11-18 05:34:00,50.9,47.1,29.97,SE,129,0.0,2.0,87,0.00,,,0.00,WUHU216DAVISVP2,2013-11-18 13:34:00,
2013-11-18 05:35:00,50.9,47.1,29.97,SE,125,0.0,2.0,87,0.00,,,0.00,WUHU216DAVISVP2,2013-11-18 13:35:00,
2013-11-18 05:36:00,50.9,46.8,29.97,SE,129,0.0,2.0,86,0.00,,,0.00,WUHU216DAVISVP2,2013-11-18 13:36:00,
2013-11-18 05:37:00,50.9,46.8,29.97,ESE,105,0.0,2.0,86,0.00,,,0.00,WUHU216DAVISVP2,2013-11-18 13:37:00,
2013-11-18 05:39:00,51.0,46.9,29.97,ESE,105,0.0,2.0,86,0.00,,,0.00,WUHU216DAVISVP2,2013-11-18 13:39:00,
2013-11-18 05:40:00,51.0,47.2,29.97,ESE,105,0.0,2.0,87,0.00,,,0.00,WUHU216DAVISVP2,2013-11-18 13:40:00,
2013-11-18 05:41:00,51.0,46.9,29.97,ESE,117,0.0,2.0,86,0.00,,,0.00,WUHU216DAVISVP2,2013-11-18 13:41:00,
2013-11-18 05:42:00,51.0,46.9,29.97,ESE,117,0.0,2.0,86,0.00,,,0.00,WUHU216DAVISVP2,2013-11-18 13:42:00,
2013-11-18 05:44:00,51.0,46.9,29.97,East,99,0.0,2.0,86,0.00,,,0.00,WUHU216DAVISVP2,2013-11-18 13:44:00,
2013-11-18 05:45:00,51.0,46.9,29.97,East,99,0.0,1.0,86,0.00,,,0.00,WUHU216DAVISVP2,2013-11-18 13:45:00,
2013-11-18 05:46:00,51.0,47.2,29.97,SSE,161,0.0,1.0,87,0.00,,,0.00,WUHU216DAVISVP2,2013-11-18 13:46:00,
2013-11-18 05:47:00,51.0,47.2,29.97,SSE,161,0.0,1.0,87,0.00,,,0.00,WUHU216DAVISVP2,2013-11-18 13:47:00,
2013-11-18 05:49:00,51.0,46.9,29.97,SSE,162,0.0,1.0,86,0.00,,,0.00,WUHU216DAVISVP2,2013-11-18 13:49:00,
2013-11-18 05:50:00,51.0,47.2,29.97,SSE,162,0.0,1.0,87,0.00,,,0.00,WUHU216DAVISVP2,2013-11-18 13:50:00,
2013-11-18 05:51:00,51.0,46.9,29.97,South,174,0.0,1.0,86,0.00,,,0.00,WUHU216DAVISVP2,2013-11-18 13:51:00,
2013-11-18 05:52:00,51.0,46.9,29.97,SSE,162,0.0,1.0,86,0.00,,,0.00,WUHU216DAVISVP2,2013-11-18 13:52:00,
2013-11-18 05:55:00,51.0,46.9,29.97,ESE,105,0.0,1.0,86,0.00,,,0.00,WUHU216DAVISVP2,2013-11-18 13:55:00,
2013-11-18 05:56:00,51.0,47.2,29.97,ESE,105,0.0,1.0,87,0.00,,,0.00,WUHU216DAVISVP2,2013-11-18 13:56:00,
2013-11-18 05:57:00,51.0,47.2,29.97,ESE,105,0.0,1.0,87,0.00,,,0.00,WUHU216DAVISVP2,2013-11-18 13:57:00,
2013-11-18 05:58:00,51.0,47.2,29.97,ESE,105,0.0,1.0,87,0.00,,,0.00,WUHU216DAVISVP2,2013-11-18 13:58:00,
2013-11-18 06:00:00,51.0,47.2,29.97,ESE,105,0.0,1.0,87,0.00,,,0.00,WUHU216DAVISVP2,2013-11-18 14:00:00,
2013-11-18 06:02:00,50.9,47.1,29.96,ESE,109,0.0,1.0,87,0.00,,,0.00,WUHU216DAVISVP2,2013-11-18 14:02:00,
2013-11-18 06:03:00,50.9,47.2,29.96,ESE,109,0.0,1.0,87,0.00,,,0.00,WUHU216DAVISVP2,2013-11-18 14:03:00,
2013-11-18 06:05:00,50.9,47.2,29.96,East,91,0.0,1.0,87,0.00,,,0.00,WUHU216DAVISVP2,2013-11-18 14:05:00,
2013-11-18 06:07:00,50.9,47.2,29.96,SE,141,0.0,1.0,87,0.00,,,0.00,WUHU216DAVISVP2,2013-11-18 14:07:00,
2013-11-18 06:08:00,50.8,47.1,29.96,East,101,0.0,1.0,87,0.00,,,0.00,WUHU216DAVISVP2,2013-11-18 14:08:00,
2013-11-18 06:10:00,50.8,46.8,29.97,SE,144,0.0,1.0,86,0.00,,,0.00,WUHU216DAVISVP2,2013-11-18 14:10:00,
2013-11-18 06:11:00,50.8,47.1,29.97,SE,145,0.0,1.0,87,0.00,,,0.00,WUHU216DAVISVP2,2013-11-18 14:11:00,
2013-11-18 06:12:00,50.8,47.1,29.97,SE,145,0.0,1.0,87,0.00,,,0.00,WUHU216DAVISVP2,2013-11-18 14:12:00,
2013-11-18 06:13:00,50.8,47.1,29.96,SE,145,0.0,1.0,87,0.00,,,0.00,WUHU216DAVISVP2,2013-11-18 14:13:00,
2013-11-18 06:15:00,50.8,47.1,29.96,ESE,117,0.0,1.0,87,0.00,,,0.00,WUHU216DAVISVP2,2013-11-18 14:15:00,
2013-11-18 06:16:00,50.8,47.0,29.96,ESE,117,0.0,1.0,87,0.00,,,0.00,WUHU216DAVISVP2,2013-11-18 14:16:00,
2013-11-18 06:18:00,50.8,47.1,29.96,ESE,117,0.0,1.0,87,0.00,,,0.00,WUHU216DAVISVP2,2013-11-18 14:18:00,
2013-11-18 06:21:00,50.8,47.0,29.96,ESE,117,0.0,1.0,87,0.00,,,0.00,WUHU216DAVISVP2,2013-11-18 14:21:00,
2013-11-18 06:22:00,50.8,47.0,29.96,ESE,117,0.0,1.0,87,0.00,,,0.00,WUHU216DAVISVP2,2013-11-18 14:22:00,
2013-11-18 06:23:00,50.7,47.0,29.96,ESE,117,0.0,1.0,87,0.00,,,0.00,WUHU216DAVISVP2,2013-11-18 14:23:00,
2013-11-18 06:26:00,50.7,47.0,29.96,ESE,115,0.0,2.0,87,0.00,,,0.00,WUHU216DAVISVP2,2013-11-18 14:26:00,
2013-11-18 06:27:00,50.8,46.8,29.96,ESE,120,0.0,2.0,86,0.00,,,0.00,WUHU216DAVISVP2,2013-11-18 14:27:00,
2013-11-18 06:28:00,50.8,46.8,29.96,ESE,120,0.0,2.0,86,0.00,,,0.00,WUHU216DAVISVP2,2013-11-18 14:28:00,
2013-11-18 06:32:00,50.8,46.7,29.96,ESE,103,0.0,2.0,86,0.00,,,0.00,WUHU216DAVISVP2,2013-11-18 14:32:00,
2013-11-18 06:33:00,50.8,46.7,29.96,ESE,103,0.0,2.0,86,0.00,,,0.00,WUHU216DAVISVP2,2013-11-18 14:33:00,
2013-11-18 06:37:00,50.9,46.9,29.96,South,170,0.0,2.0,86,0.00,,,0.00,WUHU216DAVISVP2,2013-11-18 14:37:00,
2013-11-18 06:38:00,50.9,46.6,29.96,SE,143,0.0,2.0,85,0.00,,,0.00,WUHU216DAVISVP2,2013-11-18 14:38:00,
2013-11-18 06:39:00,50.9,46.6,29.96,South,176,0.0,2.0,85,0.00,,,0.00,WUHU216DAVISVP2,2013-11-18 14:39:00,
2013-11-18 06:42:00,51.0,46.6,29.96,South,176,0.0,2.0,85,0.00,,,0.00,WUHU216DAVISVP2,2013-11-18 14:42:00,
2013-11-18 06:43:00,50.9,46.5,29.96,South,176,0.0,2.0,85,0.00,,,0.00,WUHU216DAVISVP2,2013-11-18 14:43:00,
2013-11-18 06:44:00,50.9,46.5,29.96,SSW,200,0.0,2.0,85,0.00,,,0.00,WUHU216DAVISVP2,2013-11-18 14:44:00,
2013-11-18 06:47:00,50.9,46.5,29.96,East,96,0.0,1.0,85,0.00,,,0.00,WUHU216DAVISVP2,2013-11-18 14:47:00,
2013-11-18 06:48:00,50.9,46.5,29.96,ESE,115,0.0,1.0,85,0.00,,,0.00,WUHU216DAVISVP2,2013-11-18 14:48:00,
2013-11-18 06:49:00,51.0,46.6,29.96,SE,146,0.0,1.0,85,0.00,,,0.00,WUHU216DAVISVP2,2013-11-18 14:49:00,
2013-11-18 06:53:00,51.1,46.7,29.96,East,89,0.0,1.0,85,0.00,,,0.00,WUHU216DAVISVP2,2013-11-18 14:53:00,
2013-11-18 06:54:00,51.1,46.4,29.96,ESE,103,2.0,3.0,84,0.00,,,0.00,WUHU216DAVISVP2,2013-11-18 14:54:00,
2013-11-18 06:58:00,51.2,46.5,29.96,SE,124,0.0,3.0,84,0.00,,,0.00,WUHU216DAVISVP2,2013-11-18 14:58:00,
2013-11-18 06:59:00,51.2,46.5,29.96,SE,124,0.0,3.0,84,0.00,,,0.00,WUHU216DAVISVP2,2013-11-18 14:59:00,
2013-11-18 07:04:00,51.2,46.5,29.96,ESE,113,0.0,3.0,84,0.00,,,0.00,WUHU216DAVISVP2,2013-11-18 15:04:00,
2013-11-18 07:05:00,51.2,46.5,29.96,ESE,112,0.0,3.0,84,0.00,,,0.00,WUHU216DAVISVP2,2013-11-18 15:05:00,
2013-11-18 07:09:00,51.2,46.5,29.96,SSE,168,2.0,4.0,84,0.00,,,0.00,WUHU216DAVISVP2,2013-11-18 15:09:00,
2013-11-18 07:10:00,51.2,46.5,29.96,SE,145,1.0,4.0,84,0.00,,,0.00,WUHU216DAVISVP2,2013-11-18 15:10:00,
2013-11-18 07:14:00,51.3,46.3,29.95,SE,143,0.0,4.0,83,0.00,,,0.00,WUHU216DAVISVP2,2013-11-18 15:14:00,
2013-11-18 07:15:00,51.3,46.3,29.95,ESE,113,0.0,4.0,83,0.00,,,0.00,WUHU216DAVISVP2,2013-11-18 15:15:00,
2013-11-18 07:16:00,51.3,46.3,29.95,SE,134,1.0,4.0,83,0.00,,,0.00,WUHU216DAVISVP2,2013-11-18 15:16:00,
2013-11-18 07:19:00,51.4,46.4,29.95,ESE,120,0.0,4.0,83,0.00,,,0.00,WUHU216DAVISVP2,2013-11-18 15:19:00,
2013-11-18 07:20:00,51.4,46.4,29.95,SSE,148,0.0,4.0,83,0.00,,,0.00,WUHU216DAVISVP2,2013-11-18 15:20:00,
2013-11-18 07:21:00,51.4,46.4,29.95,SW,214,0.0,4.0,83,0.00,,,0.00,WUHU216DAVISVP2,2013-11-18 15:21:00,
2013-11-18 07:24:00,51.5,46.5,29.95,ESE,114,0.0,4.0,83,0.00,,,0.00,WUHU216DAVISVP2,2013-11-18 15:24:00,
2013-11-18 07:25:00,51.5,46.5,29.95,ESE,109,0.0,4.0,83,0.00,,,0.00,WUHU216DAVISVP2,2013-11-18 15:25:00,
2013-11-18 07:26:00,51.5,46.5,29.95,SSE,147,0.0,4.0,83,0.00,,,0.00,WUHU216DAVISVP2,2013-11-18 15:26:00,
2013-11-18 07:29:00,51.6,46.6,29.95,East,99,0.0,3.0,83,0.00,,,0.00,WUHU216DAVISVP2,2013-11-18 15:29:00,
2013-11-18 07:30:00,51.6,46.6,29.95,East,99,0.0,3.0,83,0.00,,,0.00,WUHU216DAVISVP2,2013-11-18 15:30:00,
2013-11-18 07:31:00,51.6,46.6,29.95,East,100,0.0,2.0,83,0.00,,,0.00,WUHU216DAVISVP2,2013-11-18 15:31:00,
2013-11-18 07:32:00,51.6,46.6,29.95,East,98,0.0,2.0,83,0.00,,,0.00,WUHU216DAVISVP2,2013-11-18 15:32:00,
2013-11-18 07:34:00,51.6,46.6,29.95,SSE,150,0.0,4.0,83,0.00,,,0.00,WUHU216DAVISVP2,2013-11-18 15:34:00,
2013-11-18 07:35:00,51.6,46.6,29.95,SSE,164,0.0,4.0,83,0.00,,,0.00,WUHU216DAVISVP2,2013-11-18 15:35:00,
2013-11-18 07:36:00,51.6,46.6,29.95,ESE,120,0.0,4.0,83,0.00,,,0.00,WUHU216DAVISVP2,2013-11-18 15:36:00,
2013-11-18 07:37:00,51.6,46.6,29.95,East,101,0.0,4.0,83,0.00,,,0.00,WUHU216DAVISVP2,2013-11-18 15:37:00,
2013-11-18 07:39:00,51.6,46.6,29.95,SE,127,0.0,4.0,83,0.00,,,0.00,WUHU216DAVISVP2,2013-11-18 15:39:00,
2013-11-18 07:40:00,51.6,46.6,29.95,East,101,0.0,4.0,83,0.00,,,0.00,WUHU216DAVISVP2,2013-11-18 15:40:00,
2013-11-18 07:41:00,51.6,46.6,29.95,SE,124,0.0,4.0,83,0.00,,,0.00,WUHU216DAVISVP2,2013-11-18 15:41:00,
2013-11-18 07:42:00,51.6,46.6,29.95,ESE,103,1.0,4.0,83,0.00,,,0.00,WUHU216DAVISVP2,2013-11-18 15:42:00,
2013-11-18 07:43:00,51.6,46.6,29.95,South,191,0.0,4.0,83,0.00,,,0.00,WUHU216DAVISVP2,2013-11-18 15:43:00,
2013-11-18 07:45:00,51.6,46.6,29.95,WNW,285,0.0,4.0,83,0.00,,,0.00,WUHU216DAVISVP2,2013-11-18 15:45:00,
2013-11-18 07:46:00,51.6,46.6,29.95,ENE,73,0.0,4.0,83,0.00,,,0.00,WUHU216DAVISVP2,2013-11-18 15:46:00,
2013-11-18 07:47:00,51.7,46.7,29.95,SSE,151,0.0,4.0,83,0.00,,,0.00,WUHU216DAVISVP2,2013-11-18 15:47:00,
2013-11-18 07:48:00,51.7,46.7,29.95,ESE,114,0.0,4.0,83,0.00,,,0.00,WUHU216DAVISVP2,2013-11-18 15:48:00,
2013-11-18 07:50:00,51.7,46.4,29.95,SSE,156,3.0,4.0,82,0.00,,,0.00,WUHU216DAVISVP2,2013-11-18 15:50:00,
2013-11-18 07:51:00,51.7,46.4,29.95,ESE,120,0.0,4.0,82,0.00,,,0.00,WUHU216DAVISVP2,2013-11-18 15:51:00,
2013-11-18 07:54:00,51.8,46.8,29.95,NNE,13,0.0,3.0,83,0.00,,,0.00,WUHU216DAVISVP2,2013-11-18 15:54:00,
2013-11-18 07:55:00,51.7,46.4,29.95,ESE,103,0.0,3.0,82,0.00,,,0.00,WUHU216DAVISVP2,2013-11-18 15:55:00,
2013-11-18 07:56:00,51.8,46.5,29.95,SSW,210,1.0,3.0,82,0.00,,,0.00,WUHU216DAVISVP2,2013-11-18 15:56:00,
2013-11-18 07:57:00,51.8,46.5,29.94,ESE,103,0.0,3.0,82,0.00,,,0.00,WUHU216DAVISVP2,2013-11-18 15:57:00,
2013-11-18 07:59:00,51.8,46.5,29.95,SE,146,0.0,3.0,82,0.00,,,0.00,WUHU216DAVISVP2,2013-11-18 15:59:00,
2013-11-18 08:00:00,51.9,46.6,29.94,ESE,118,0.0,3.0,82,0.00,,,0.00,WUHU216DAVISVP2,2013-11-18 16:00:00,
2013-11-18 08:01:00,51.9,46.6,29.94,SW,222,0.0,3.0,82,0.00,,,0.00,WUHU216DAVISVP2,2013-11-18 16:01:00,
2013-11-18 08:02:00,51.9,46.6,29.94,SE,145,0.0,3.0,82,0.00,,,0.00,WUHU216DAVISVP2,2013-11-18 16:02:00,
2013-11-18 08:04:00,51.9,46.6,29.95,SSE,165,1.0,3.0,82,0.00,,,0.00,WUHU216DAVISVP2,2013-11-18 16:04:00,
2013-11-18 08:05:00,52.0,46.7,29.94,ESE,108,1.0,3.0,82,0.00,,,0.00,WUHU216DAVISVP2,2013-11-18 16:05:00,
2013-11-18 08:06:00,52.0,46.7,29.94,ESE,115,0.0,3.0,82,0.00,,,0.00,WUHU216DAVISVP2,2013-11-18 16:06:00,
2013-11-18 08:07:00,52.0,46.7,29.94,SE,131,0.0,3.0,82,0.00,,,0.00,WUHU216DAVISVP2,2013-11-18 16:07:00,
2013-11-18 08:10:00,52.0,47.0,29.94,East,80,0.0,3.0,83,0.00,,,0.00,WUHU216DAVISVP2,2013-11-18 16:10:00,
2013-11-18 08:11:00,52.0,47.0,29.94,East,90,0.0,3.0,83,0.00,,,0.00,WUHU216DAVISVP2,2013-11-18 16:11:00,
2013-11-18 08:12:00,52.0,47.0,29.94,ENE,68,0.0,2.0,83,0.00,,,0.00,WUHU216DAVISVP2,2013-11-18 16:12:00,
2013-11-18 08:16:00,52.1,46.8,29.94,SE,129,0.0,2.0,82,0.00,,,0.00,WUHU216DAVISVP2,2013-11-18 16:16:00,
2013-11-18 08:17:00,52.1,46.8,29.94,ESE,123,0.0,2.0,82,0.00,,,0.00,WUHU216DAVISVP2,2013-11-18 16:17:00,
2013-11-18 08:18:00,52.1,46.8,29.94,ESE,123,0.0,2.0,82,0.00,,,0.00,WUHU216DAVISVP2,2013-11-18 16:18:00,
2013-11-18 08:21:00,52.2,46.9,29.94,SE,138,0.0,2.0,82,0.00,,,0.00,WUHU216DAVISVP2,2013-11-18 16:21:00,
2013-11-18 08:22:00,52.2,46.9,29.94,ESE,117,0.0,2.0,82,0.00,,,0.00,WUHU216DAVISVP2,2013-11-18 16:22:00,
2013-11-18 08:23:00,52.2,46.9,29.94,SE,143,0.0,2.0,82,0.00,,,0.00,WUHU216DAVISVP2,2013-11-18 16:23:00,
2013-11-18 08:26:00,52.3,47.0,29.94,ESE,110,0.0,3.0,82,0.00,,,0.00,WUHU216DAVISVP2,2013-11-18 16:26:00,
2013-11-18 08:27:00,52.3,47.0,29.94,SSE,149,0.0,3.0,82,0.00,,,0.00,WUHU216DAVISVP2,2013-11-18 16:27:00,
2013-11-18 08:28:00,52.4,47.1,29.94,SSE,165,1.0,3.0,82,0.00,,,0.00,WUHU216DAVISVP2,2013-11-18 16:28:00,
2013-11-18 08:31:00,52.5,47.2,29.94,SSE,151,0.0,3.0,82,0.00,,,0.00,WUHU216DAVISVP2,2013-11-18 16:31:00,
2013-11-18 08:32:00,52.5,47.2,29.94,SSE,163,1.0,3.0,82,0.00,,,0.00,WUHU216DAVISVP2,2013-11-18 16:32:00,
2013-11-18 08:33:00,52.5,47.2,29.94,SSE,152,0.0,3.0,82,0.00,,,0.00,WUHU216DAVISVP2,2013-11-18 16:33:00,
2013-11-18 08:34:00,52.5,47.2,29.94,SSE,152,0.0,3.0,82,0.00,,,0.00,WUHU216DAVISVP2,2013-11-18 16:34:00,
2013-11-18 08:37:00,52.6,47.3,29.94,East,96,0.0,3.0,82,0.00,,,0.00,WUHU216DAVISVP2,2013-11-18 16:37:00,
2013-11-18 08:38:00,52.6,47.3,29.94,SE,136,0.0,3.0,82,0.00,,,0.00,WUHU216DAVISVP2,2013-11-18 16:38:00,
2013-11-18 08:39:00,52.6,47.3,29.94,SE,136,0.0,3.0,82,0.00,,,0.00,WUHU216DAVISVP2,2013-11-18 16:39:00,
2013-11-18 08:42:00,52.7,47.4,29.94,SE,142,0.0,3.0,82,0.00,,,0.00,WUHU216DAVISVP2,2013-11-18 16:42:00,
2013-11-18 08:43:00,52.7,47.4,29.94,ESE,122,0.0,3.0,82,0.00,,,0.00,WUHU216DAVISVP2,2013-11-18 16:43:00,
2013-11-18 08:44:00,52.7,47.4,29.94,SE,145,0.0,3.0,82,0.00,,,0.00,WUHU216DAVISVP2,2013-11-18 16:44:00,
2013-11-18 08:47:00,52.8,47.5,29.94,SSE,151,0.0,2.0,82,0.00,,,0.00,WUHU216DAVISVP2,2013-11-18 16:47:00,
2013-11-18 08:48:00,52.8,47.5,29.94,SSE,151,0.0,2.0,82,0.00,,,0.00,WUHU216DAVISVP2,2013-11-18 16:48:00,
2013-11-18 08:49:00,52.8,47.5,29.94,SSE,155,0.0,2.0,82,0.00,,,0.00,WUHU216DAVISVP2,2013-11-18 16:49:00,
2013-11-18 08:52:00,52.8,47.5,29.94,SE,141,0.0,2.0,82,0.00,,,0.00,WUHU216DAVISVP2,2013-11-18 16:52:00,
2013-11-18 08:53:00,52.8,47.5,29.94,SSW,205,0.0,2.0,82,0.00,,,0.00,WUHU216DAVISVP2,2013-11-18 16:53:00,
2013-11-18 08:55:00,52.9,47.6,29.94,SE,131,0.0,2.0,82,0.00,,,0.00,WUHU216DAVISVP2,2013-11-18 16:55:00,
2013-11-18 08:57:00,52.9,47.2,29.94,South,186,0.0,2.0,81,0.00,,,0.00,WUHU216DAVISVP2,2013-11-18 16:57:00,
2013-11-18 08:58:00,52.9,47.6,29.94,South,186,0.0,2.0,82,0.00,,,0.00,WUHU216DAVISVP2,2013-11-18 16:58:00,
2013-11-18 08:59:00,52.9,47.2,29.94,SE,131,0.0,1.0,81,0.00,,,0.00,WUHU216DAVISVP2,2013-11-18 16:59:00,
2013-11-18 09:02:00,53.0,47.3,29.94,ENE,78,0.0,1.0,81,0.00,,,0.00,WUHU216DAVISVP2,2013-11-18 17:02:00,
2013-11-18 09:03:00,53.0,47.3,29.94,ESE,103,0.0,1.0,81,0.00,,,0.00,WUHU216DAVISVP2,2013-11-18 17:03:00,
2013-11-18 09:05:00,53.0,47.3,29.94,SSE,166,0.0,1.0,81,0.00,,,0.00,WUHU216DAVISVP2,2013-11-18 17:05:00,
2013-11-18 09:07:00,53.1,47.7,29.94,SSE,162,0.0,1.0,82,0.00,,,0.00,WUHU216DAVISVP2,2013-11-18 17:07:00,
2013-11-18 09:08:00,53.1,47.4,29.94,SSE,153,1.0,1.0,81,0.00,,,0.00,WUHU216DAVISVP2,2013-11-18 17:08:00,
2013-11-18 09:09:00,53.1,47.4,29.94,SSE,152,0.0,1.0,81,0.00,,,0.00,WUHU216DAVISVP2,2013-11-18 17:09:00,
2013-11-18 09:10:00,53.1,47.4,29.94,SSE,155,0.0,1.0,81,0.00,,,0.00,WUHU216DAVISVP2,2013-11-18 17:10:00,
2013-11-18 09:13:00,53.1,47.4,29.94,ENE,67,0.0,1.0,81,0.00,,,0.00,WUHU216DAVISVP2,2013-11-18 17:13:00,
2013-11-18 09:14:00,53.2,47.6,29.94,ENE,67,0.0,1.0,81,0.00,,,0.00,WUHU216DAVISVP2,2013-11-18 17:14:00,
2013-11-18 09:15:00,53.2,47.6,29.94,SE,136,0.0,1.0,81,0.00,,,0.00,WUHU216DAVISVP2,2013-11-18 17:15:00,
2013-11-18 09:18:00,53.2,47.6,29.94,SSE,158,0.0,1.0,81,0.00,,,0.00,WUHU216DAVISVP2,2013-11-18 17:18:00,
2013-11-18 09:19:00,53.2,47.6,29.94,SE,139,0.0,1.0,81,0.00,,,0.00,WUHU216DAVISVP2,2013-11-18 17:19:00,
2013-11-18 09:20:00,53.2,47.6,29.94,SE,139,0.0,1.0,81,0.00,,,0.00,WUHU216DAVISVP2,2013-11-18 17:20:00,
2013-11-18 09:23:00,53.2,47.6,29.94,East,89,0.0,1.0,81,0.00,,,0.00,WUHU216DAVISVP2,2013-11-18 17:23:00,
2013-11-18 09:24:00,53.3,47.6,29.94,South,173,0.0,1.0,81,0.00,,,0.00,WUHU216DAVISVP2,2013-11-18 17:24:00,
2013-11-18 09:25:00,53.3,47.9,29.94,SE,131,0.0,1.0,82,0.00,,,0.00,WUHU216DAVISVP2,2013-11-18 17:25:00,
2013-11-18 09:26:00,53.3,47.6,29.94,SE,131,0.0,1.0,81,0.00,,,0.00,WUHU216DAVISVP2,2013-11-18 17:26:00,
2013-11-18 09:28:00,53.3,47.9,29.94,SE,131,0.0,1.0,82,0.00,,,0.00,WUHU216DAVISVP2,2013-11-18 17:28:00,
2013-11-18 09:29:00,53.3,47.9,29.94,SE,131,0.0,1.0,82,0.00,,,0.00,WUHU216DAVISVP2,2013-11-18 17:29:00,
2013-11-18 09:30:00,53.4,48.0,29.94,SE,131,0.0,1.0,82,0.00,,,0.00,WUHU216DAVISVP2,2013-11-18 17:30:00,
2013-11-18 09:31:00,53.4,48.0,29.94,SE,131,0.0,1.0,82,0.00,,,0.00,WUHU216DAVISVP2,2013-11-18 17:31:00,
2013-11-18 09:33:00,53.4,48.1,29.94,SE,131,0.0,1.0,82,0.00,,,0.00,WUHU216DAVISVP2,2013-11-18 17:33:00,
2013-11-18 09:34:00,53.5,48.2,29.94,SE,131,0.0,1.0,82,0.00,,,0.00,WUHU216DAVISVP2,2013-11-18 17:34:00,
2013-11-18 09:36:00,53.5,47.8,29.94,SE,143,0.0,1.0,81,0.00,,,0.00,WUHU216DAVISVP2,2013-11-18 17:36:00,
2013-11-18 09:38:00,53.5,47.8,29.95,SSE,160,0.0,1.0,81,0.00,,,0.00,WUHU216DAVISVP2,2013-11-18 17:38:00,
2013-11-18 09:39:00,53.5,47.8,29.95,ESE,117,1.0,1.0,81,0.00,,,0.00,WUHU216DAVISVP2,2013-11-18 17:39:00,
2013-11-18 09:41:00,53.6,47.9,29.94,SE,131,0.0,1.0,81,0.00,,,0.00,WUHU216DAVISVP2,2013-11-18 17:41:00,
2013-11-18 09:43:00,53.6,47.9,29.94,SSE,162,0.0,1.0,81,0.00,,,0.00,WUHU216DAVISVP2,2013-11-18 17:43:00,
2013-11-18 09:44:00,53.6,47.9,29.94,SSE,155,0.0,1.0,81,0.00,,,0.00,WUHU216DAVISVP2,2013-11-18 17:44:00,
2013-11-18 09:46:00,53.6,47.9,29.94,ESE,104,0.0,2.0,81,0.00,,,0.00,WUHU216DAVISVP2,2013-11-18 17:46:00,
2013-11-18 09:47:00,53.6,47.9,29.94,ESE,104,0.0,2.0,81,0.00,,,0.00,WUHU216DAVISVP2,2013-11-18 17:47:00,
2013-11-18 09:49:00,53.6,47.6,29.94,SE,146,0.0,2.0,80,0.00,,,0.00,WUHU216DAVISVP2,2013-11-18 17:49:00,
2013-11-18 09:50:00,53.6,47.9,29.94,SE,127,0.0,2.0,81,0.00,,,0.00,WUHU216DAVISVP2,2013-11-18 17:50:00,
2013-11-18 09:51:00,53.7,48.0,29.94,SE,128,0.0,2.0,81,0.00,,,0.00,WUHU216DAVISVP2,2013-11-18 17:51:00,
2013-11-18 09:52:00,53.7,47.7,29.94,SE,128,0.0,2.0,80,0.00,,,0.00,WUHU216DAVISVP2,2013-11-18 17:52:00,
2013-11-18 09:54:00,53.6,47.9,29.95,SE,134,0.0,2.0,81,0.00,,,0.00,WUHU216DAVISVP2,2013-11-18 17:54:00,
2013-11-18 09:55:00,53.6,47.6,29.95,SSE,164,1.0,3.0,80,0.00,,,0.00,WUHU216DAVISVP2,2013-11-18 17:55:00,
2013-11-18 09:56:00,53.7,47.7,29.94,West,268,0.0,3.0,80,0.00,,,0.00,WUHU216DAVISVP2,2013-11-18 17:56:00,
2013-11-18 09:57:00,53.7,47.7,29.94,SW,229,1.0,3.0,80,0.00,,,0.00,WUHU216DAVISVP2,2013-11-18 17:57:00,
2013-11-18 09:59:00,53.7,48.0,29.94,SSW,207,0.0,3.0,81,0.00,,,0.00,WUHU216DAVISVP2,2013-11-18 17:59:00,
2013-11-18 10:00:00,53.7,47.7,29.94,SSE,150,0.0,3.0,80,0.00,,,0.00,WUHU216DAVISVP2,2013-11-18 18:00:00,
2013-11-18 10:01:00,53.7,47.7,29.94,SE,143,0.0,3.0,80,0.00,,,0.00,WUHU216DAVISVP2,2013-11-18 18:01:00,
2013-11-18 10:02:00,53.7,47.7,29.94,South,184,0.0,3.0,80,0.00,,,0.00,WUHU216DAVISVP2,2013-11-18 18:02:00,
2013-11-18 10:04:00,53.7,47.7,29.94,South,172,0.0,3.0,80,0.00,,,0.00,WUHU216DAVISVP2,2013-11-18 18:04:00,
2013-11-18 10:05:00,53.7,47.7,29.94,East,101,0.0,3.0,80,0.00,,,0.00,WUHU216DAVISVP2,2013-11-18 18:05:00,
2013-11-18 10:06:00,53.7,47.7,29.95,West,260,0.0,3.0,80,0.00,,,0.00,WUHU216DAVISVP2,2013-11-18 18:06:00,
2013-11-18 10:07:00,53.7,47.7,29.95,SE,131,1.0,3.0,80,0.00,,,0.00,WUHU216DAVISVP2,2013-11-18 18:07:00,
2013-11-18 10:08:00,53.7,47.7,29.94,ESE,123,0.0,3.0,80,0.00,,,0.00,WUHU216DAVISVP2,2013-11-18 18:08:00,
2013-11-18 10:09:00,53.8,47.8,29.95,ESE,115,0.0,3.0,80,0.00,,,0.00,WUHU216DAVISVP2,2013-11-18 18:09:00,
2013-11-18 10:10:00,53.8,47.8,29.95,SSE,167,0.0,3.0,80,0.00,,,0.00,WUHU216DAVISVP2,2013-11-18 18:10:00,
2013-11-18 10:12:00,53.8,47.8,29.95,ESE,111,0.0,3.0,80,0.00,,,0.00,WUHU216DAVISVP2,2013-11-18 18:12:00,
2013-11-18 10:13:00,53.8,47.8,29.94,SSE,167,1.0,3.0,80,0.00,,,0.00,WUHU216DAVISVP2,2013-11-18 18:13:00,
2013-11-18 10:14:00,53.9,47.9,29.94,South,188,0.0,2.0,80,0.00,,,0.00,WUHU216DAVISVP2,2013-11-18 18:14:00,
2013-11-18 10:15:00,53.8,47.5,29.94,West,279,0.0,2.0,79,0.00,,,0.00,WUHU216DAVISVP2,2013-11-18 18:15:00,
2013-11-18 10:17:00,53.9,47.3,29.94,SSE,153,1.0,2.0,78,0.00,,,0.00,WUHU216DAVISVP2,2013-11-18 18:17:00,
2013-11-18 10:18:00,53.9,47.3,29.94,ESE,109,4.0,4.0,78,0.00,,,0.00,WUHU216DAVISVP2,2013-11-18 18:18:00,
2013-11-18 10:19:00,53.9,46.9,29.94,SW,219,0.0,4.0,77,0.00,,,0.00,WUHU216DAVISVP2,2013-11-18 18:19:00,
2013-11-18 10:20:00,54.0,47.0,29.94,ESE,106,0.0,4.0,77,0.00,,,0.00,WUHU216DAVISVP2,2013-11-18 18:20:00,
2013-11-18 10:21:00,54.0,47.0,29.94,ESE,104,0.0,4.0,77,0.00,,,0.00,WUHU216DAVISVP2,2013-11-18 18:21:00,
2013-11-18 10:22:00,54.1,47.1,29.94,SW,215,0.0,4.0,77,0.00,,,0.00,WUHU216DAVISVP2,2013-11-18 18:22:00,
2013-11-18 10:23:00,54.1,47.5,29.94,SW,215,0.0,4.0,78,0.00,,,0.00,WUHU216DAVISVP2,2013-11-18 18:23:00,
2013-11-18 10:24:00,54.1,47.5,29.94,South,188,0.0,4.0,78,0.00,,,0.00,WUHU216DAVISVP2,2013-11-18 18:24:00,
2013-11-18 10:26:00,54.1,47.0,29.94,SSW,207,1.0,4.0,77,0.00,,,0.00,WUHU216DAVISVP2,2013-11-18 18:26:00,
2013-11-18 10:27:00,54.2,47.1,29.94,SSW,198,0.0,4.0,77,0.00,,,0.00,WUHU216DAVISVP2,2013-11-18 18:27:00,
2013-11-18 10:28:00,54.2,46.9,29.95,SSE,168,3.0,5.0,76,0.00,,,0.00,WUHU216DAVISVP2,2013-11-18 18:28:00,
2013-11-18 10:29:00,54.2,46.9,29.94,SW,224,0.0,5.0,76,0.00,,,0.00,WUHU216DAVISVP2,2013-11-18 18:29:00,
2013-11-18 10:31:00,54.3,47.0,29.94,ESE,114,1.0,5.0,76,0.00,,,0.00,WUHU216DAVISVP2,2013-11-18 18:31:00,
2013-11-18 10:32:00,54.3,47.0,29.94,SE,130,0.0,5.0,76,0.00,,,0.00,WUHU216DAVISVP2,2013-11-18 18:32:00,
2013-11-18 10:34:00,54.4,47.1,29.94,SSW,212,0.0,5.0,76,0.00,,,0.00,WUHU216DAVISVP2,2013-11-18 18:34:00,
2013-11-18 10:35:00,54.4,47.4,29.94,SE,141,0.0,5.0,77,0.00,,,0.00,WUHU216DAVISVP2,2013-11-18 18:35:00,
2013-11-18 10:36:00,54.4,47.4,29.94,SE,135,0.0,5.0,77,0.00,,,0.00,WUHU216DAVISVP2,2013-11-18 18:36:00,
2013-11-18 10:37:00,54.4,47.1,29.94,SSE,162,0.0,5.0,76,0.00,,,0.00,WUHU216DAVISVP2,2013-11-18 18:37:00,
2013-11-18 10:39:00,54.4,47.1,29.94,SSE,153,3.0,7.0,76,0.00,,,0.00,WUHU216DAVISVP2,2013-11-18 18:39:00,
2013-11-18 10:41:00,54.5,47.2,29.94,SE,130,0.0,7.0,76,0.00,,,0.00,WUHU216DAVISVP2,2013-11-18 18:41:00,
2013-11-18 10:42:00,54.5,47.2,29.94,SW,218,1.0,7.0,76,0.00,,,0.00,WUHU216DAVISVP2,2013-11-18 18:42:00,
2013-11-18 10:43:00,54.5,46.8,29.94,WSW,248,0.0,7.0,75,0.00,,,0.00,WUHU216DAVISVP2,2013-11-18 18:43:00,
2013-11-18 10:44:00,54.5,47.2,29.94,SSE,168,0.0,7.0,76,0.00,,,0.00,WUHU216DAVISVP2,2013-11-18 18:44:00,
2013-11-18 10:46:00,54.5,47.2,29.94,West,271,0.0,7.0,76,0.00,,,0.00,WUHU216DAVISVP2,2013-11-18 18:46:00,
2013-11-18 10:47:00,54.5,47.2,29.94,WNW,287,1.0,7.0,76,0.00,,,0.00,WUHU216DAVISVP2,2013-11-18 18:47:00,
2013-11-18 10:48:00,54.5,47.2,29.94,NW,319,2.0,7.0,76,0.00,,,0.00,WUHU216DAVISVP2,2013-11-18 18:48:00,
2013-11-18 10:49:00,54.5,46.8,29.94,SSW,210,0.0,7.0,75,0.00,,,0.00,WUHU216DAVISVP2,2013-11-18 18:49:00,
2013-11-18 10:50:00,54.5,47.2,29.94,South,184,1.0,7.0,76,0.00,,,0.00,WUHU216DAVISVP2,2013-11-18 18:50:00,
2013-11-18 10:51:00,54.5,47.2,29.93,ESE,119,0.0,7.0,76,0.00,,,0.00,WUHU216DAVISVP2,2013-11-18 18:51:00,
2013-11-18 10:52:00,54.5,47.2,29.93,ESE,119,0.0,7.0,76,0.00,,,0.00,WUHU216DAVISVP2,2013-11-18 18:52:00,
2013-11-18 10:53:00,54.6,47.2,29.93,SW,235,0.0,7.0,76,0.00,,,0.00,WUHU216DAVISVP2,2013-11-18 18:53:00,
2013-11-18 10:55:00,54.6,47.2,29.94,SW,235,0.0,7.0,76,0.00,,,0.00,WUHU216DAVISVP2,2013-11-18 18:55:00,
2013-11-18 10:57:00,54.6,47.2,29.93,SSE,159,0.0,7.0,76,0.00,,,0.00,WUHU216DAVISVP2,2013-11-18 18:57:00,
2013-11-18 10:58:00,54.6,47.2,29.93,West,275,0.0,5.0,76,0.00,,,0.00,WUHU216DAVISVP2,2013-11-18 18:58:00,
2013-11-18 10:59:00,54.6,47.2,29.93,NE,50,1.0,4.0,76,0.00,,,0.00,WUHU216DAVISVP2,2013-11-18 18:59:00,
2013-11-18 11:00:00,54.6,47.3,29.93,ESE,105,0.0,4.0,76,0.00,,,0.00,WUHU216DAVISVP2,2013-11-18 19:00:00,
2013-11-18 11:02:00,54.6,47.3,29.93,SW,223,0.0,4.0,76,0.00,,,0.00,WUHU216DAVISVP2,2013-11-18 19:02:00,
2013-11-18 11:03:00,54.6,47.3,29.93,SW,218,0.0,4.0,76,0.00,,,0.00,WUHU216DAVISVP2,2013-11-18 19:03:00,
2013-11-18 11:04:00,54.7,47.4,29.93,ENE,75,0.0,4.0,76,0.00,,,0.00,WUHU216DAVISVP2,2013-11-18 19:04:00,
2013-11-18 11:05:00,54.6,47.6,29.93,WSW,250,0.0,4.0,77,0.00,,,0.00,WUHU216DAVISVP2,2013-11-18 19:05:00,
2013-11-18 11:06:00,54.7,47.7,29.93,WSW,250,0.0,4.0,77,0.00,,,0.00,WUHU216DAVISVP2,2013-11-18 19:06:00,
2013-11-18 11:07:00,54.7,47.7,29.93,SW,219,1.0,3.0,77,0.00,,,0.00,WUHU216DAVISVP2,2013-11-18 19:07:00,
2013-11-18 11:08:00,54.7,47.7,29.93,South,170,1.0,3.0,77,0.00,,,0.00,WUHU216DAVISVP2,2013-11-18 19:08:00,
2013-11-18 11:09:00,54.7,47.7,29.93,SW,216,0.0,3.0,77,0.00,,,0.00,WUHU216DAVISVP2,2013-11-18 19:09:00,
2013-11-18 11:11:00,54.7,47.4,29.93,SE,132,2.0,4.0,76,0.00,,,0.00,WUHU216DAVISVP2,2013-11-18 19:11:00,
2013-11-18 11:12:00,54.7,47.4,29.93,SSE,148,0.0,4.0,76,0.00,,,0.00,WUHU216DAVISVP2,2013-11-18 19:12:00,
2013-11-18 11:13:00,54.8,47.4,29.93,East,99,1.0,4.0,76,0.00,,,0.00,WUHU216DAVISVP2,2013-11-18 19:13:00,
2013-11-18 11:16:00,54.9,47.8,29.93,South,190,0.0,4.0,77,0.00,,,0.00,WUHU216DAVISVP2,2013-11-18 19:16:00,
2013-11-18 11:17:00,54.9,47.5,29.92,ESE,116,0.0,4.0,76,0.00,,,0.00,WUHU216DAVISVP2,2013-11-18 19:17:00,
2013-11-18 11:19:00,54.9,47.5,29.92,SE,130,2.0,4.0,76,0.00,,,0.00,WUHU216DAVISVP2,2013-11-18 19:19:00,
2013-11-18 11:21:00,55.0,47.7,29.92,SW,226,0.0,4.0,76,0.00,,,0.00,WUHU216DAVISVP2,2013-11-18 19:21:00,
2013-11-18 11:22:00,55.0,47.6,29.92,SSE,155,1.0,4.0,76,0.00,,,0.00,WUHU216DAVISVP2,2013-11-18 19:22:00,
2013-11-18 11:23:00,55.0,47.6,29.92,SSE,155,1.0,4.0,76,0.00,,,0.00,WUHU216DAVISVP2,2013-11-18 19:23:00,
2013-11-18 11:24:00,55.0,47.7,29.92,SSW,208,0.0,4.0,76,0.00,,,0.00,WUHU216DAVISVP2,2013-11-18 19:24:00,
2013-11-18 11:26:00,55.1,47.8,29.92,SSE,165,0.0,4.0,76,0.00,,,0.00,WUHU216DAVISVP2,2013-11-18 19:26:00,
2013-11-18 11:27:00,55.1,47.8,29.92,SE,140,0.0,4.0,76,0.00,,,0.00,WUHU216DAVISVP2,2013-11-18 19:27:00,
2013-11-18 11:28:00,55.1,47.8,29.92,SE,141,0.0,4.0,76,0.00,,,0.00,WUHU216DAVISVP2,2013-11-18 19:28:00,
2013-11-18 11:29:00,55.1,47.8,29.92,SE,124,0.0,4.0,76,0.00,,,0.00,WUHU216DAVISVP2,2013-11-18 19:29:00,
2013-11-18 11:30:00,55.1,47.8,29.92,ESE,103,0.0,4.0,76,0.00,,,0.00,WUHU216DAVISVP2,2013-11-18 19:30:00,
2013-11-18 11:31:00,55.2,47.8,29.92,SE,127,0.0,4.0,76,0.00,,,0.00,WUHU216DAVISVP2,2013-11-18 19:31:00,
2013-11-18 11:32:00,55.2,47.8,29.91,SW,236,0.0,4.0,76,0.00,,,0.00,WUHU216DAVISVP2,2013-11-18 19:32:00,
2013-11-18 11:33:00,55.2,47.8,29.91,WSW,241,0.0,4.0,76,0.00,,,0.00,WUHU216DAVISVP2,2013-11-18 19:33:00,
2013-11-18 11:34:00,55.2,47.8,29.91,SSE,150,0.0,4.0,76,0.00,,,0.00,WUHU216DAVISVP2,2013-11-18 19:34:00,
2013-11-18 11:35:00,55.2,47.8,29.92,ESE,122,1.0,4.0,76,0.00,,,0.00,WUHU216DAVISVP2,2013-11-18 19:35:00,
2013-11-18 11:37:00,55.2,47.8,29.91,South,174,0.0,4.0,76,0.00,,,0.00,WUHU216DAVISVP2,2013-11-18 19:37:00,
2013-11-18 11:38:00,55.2,47.8,29.91,East,98,0.0,4.0,76,0.00,,,0.00,WUHU216DAVISVP2,2013-11-18 19:38:00,
2013-11-18 11:39:00,55.2,47.8,29.91,South,184,0.0,3.0,76,0.00,,,0.00,WUHU216DAVISVP2,2013-11-18 19:39:00,
2013-11-18 11:40:00,55.2,47.8,29.91,ESE,108,0.0,3.0,76,0.00,,,0.00,WUHU216DAVISVP2,2013-11-18 19:40:00,
2013-11-18 11:42:00,55.2,47.8,29.91,South,172,1.0,3.0,76,0.00,,,0.00,WUHU216DAVISVP2,2013-11-18 19:42:00,
2013-11-18 11:43:00,55.1,47.8,29.91,West,260,1.0,3.0,76,0.00,,,0.00,WUHU216DAVISVP2,2013-11-18 19:43:00,
2013-11-18 11:44:00,55.1,47.8,29.91,SE,146,0.0,3.0,76,0.00,,,0.00,WUHU216DAVISVP2,2013-11-18 19:44:00,
2013-11-18 11:45:00,55.2,47.8,29.91,East,87,0.0,3.0,76,0.00,,,0.00,WUHU216DAVISVP2,2013-11-18 19:45:00,
2013-11-18 11:47:00,55.2,47.8,29.91,SSW,203,0.0,3.0,76,0.00,,,0.00,WUHU216DAVISVP2,2013-11-18 19:47:00,
2013-11-18 11:48:00,55.1,47.8,29.91,South,170,0.0,3.0,76,0.00,,,0.00,WUHU216DAVISVP2,2013-11-18 19:48:00,
2013-11-18 11:49:00,55.1,47.8,29.91,SSE,147,0.0,3.0,76,0.00,,,0.00,WUHU216DAVISVP2,2013-11-18 19:49:00,
2013-11-18 11:51:00,55.1,47.8,29.91,South,169,0.0,3.0,76,0.00,,,0.00,WUHU216DAVISVP2,2013-11-18 19:51:00,
2013-11-18 11:53:00,55.1,47.8,29.91,ESE,110,0.0,3.0,76,0.00,,,0.00,WUHU216DAVISVP2,2013-11-18 19:53:00,
2013-11-18 11:54:00,55.1,47.8,29.90,SSW,203,0.0,3.0,76,0.00,,,0.00,WUHU216DAVISVP2,2013-11-18 19:54:00,
2013-11-18 11:55:00,55.1,47.8,29.91,SSE,162,0.0,3.0,76,0.00,,,0.00,WUHU216DAVISVP2,2013-11-18 19:55:00,
2013-11-18 11:56:00,55.0,47.7,29.90,ENE,64,0.0,3.0,76,0.00,,,0.00,WUHU216DAVISVP2,2013-11-18 19:56:00,
2013-11-18 11:58:00,55.0,47.7,29.90,South,169,0.0,3.0,76,0.00,,,0.00,WUHU216DAVISVP2,2013-11-18 19:58:00,
2013-11-18 12:00:00,55.0,47.7,29.90,SSW,211,0.0,3.0,76,0.00,,,0.00,WUHU216DAVISVP2,2013-11-18 20:00:00,
2013-11-18 12:01:00,55.0,47.7,29.90,SSE,161,0.0,3.0,76,0.00,,,0.00,WUHU216DAVISVP2,2013-11-18 20:01:00,
2013-11-18 12:03:00,55.0,47.7,29.90,SSE,155,1.0,3.0,76,0.00,,,0.00,WUHU216DAVISVP2,2013-11-18 20:03:00,
2013-11-18 12:04:00,54.9,47.6,29.90,South,183,3.0,3.0,76,0.00,,,0.00,WUHU216DAVISVP2,2013-11-18 20:04:00,
2013-11-18 12:05:00,54.9,47.6,29.90,ESE,113,0.0,5.0,76,0.00,,,0.00,WUHU216DAVISVP2,2013-11-18 20:05:00,
2013-11-18 12:06:00,54.9,47.6,29.90,SSE,148,0.0,5.0,76,0.00,,,0.00,WUHU216DAVISVP2,2013-11-18 20:06:00,
2013-11-18 12:08:00,54.9,47.9,29.90,East,100,7.0,7.0,77,0.00,,,0.00,WUHU216DAVISVP2,2013-11-18 20:08:00,
2013-11-18 12:09:00,54.9,47.9,29.90,ENE,65,2.0,14.0,77,0.00,,,0.00,WUHU216DAVISVP2,2013-11-18 20:09:00,
2013-11-18 12:10:00,54.8,48.1,29.89,South,181,0.0,14.0,78,0.00,,,0.00,WUHU216DAVISVP2,2013-11-18 20:10:00,
2013-11-18 12:11:00,54.8,48.1,29.89,SSW,202,0.0,14.0,78,0.00,,,0.00,WUHU216DAVISVP2,2013-11-18 20:11:00,
2013-11-18 12:12:00,54.8,48.1,29.89,SE,137,2.0,14.0,78,0.00,,,0.00,WUHU216DAVISVP2,2013-11-18 20:12:00,
2013-11-18 12:13:00,54.7,48.0,29.89,South,191,1.0,14.0,78,0.00,,,0.00,WUHU216DAVISVP2,2013-11-18 20:13:00,
2013-11-18 12:14:00,54.7,48.0,29.89,South,188,0.0,14.0,78,0.00,,,0.00,WUHU216DAVISVP2,2013-11-18 20:14:00,
2013-11-18 12:16:00,54.6,48.3,29.89,South,172,0.0,14.0,79,0.00,,,0.00,WUHU216DAVISVP2,2013-11-18 20:16:00,
2013-11-18 12:17:00,54.6,48.6,29.89,ESE,110,1.0,14.0,80,0.00,,,0.00,WUHU216DAVISVP2,2013-11-18 20:17:00,
2013-11-18 12:18:00,54.5,48.2,29.89,SSW,199,5.0,14.0,79,0.00,,,0.00,WUHU216DAVISVP2,2013-11-18 20:18:00,
2013-11-18 12:19:00,54.5,48.2,29.89,South,184,3.0,14.0,79,0.00,,,0.00,WUHU216DAVISVP2,2013-11-18 20:19:00,
2013-11-18 12:21:00,54.5,48.2,29.89,SSW,193,1.0,14.0,79,0.00,,,0.00,WUHU216DAVISVP2,2013-11-18 20:21:00,
2013-11-18 12:22:00,54.5,48.2,29.89,ESE,117,0.0,14.0,79,0.00,,,0.00,WUHU216DAVISVP2,2013-11-18 20:22:00,
2013-11-18 12:24:00,54.4,48.4,29.89,SSE,163,1.0,14.0,80,0.00,,,0.00,WUHU216DAVISVP2,2013-11-18 20:24:00,
2013-11-18 12:25:00,54.4,48.4,29.89,SE,139,2.0,14.0,80,0.00,,,0.00,WUHU216DAVISVP2,2013-11-18 20:25:00,
2013-11-18 12:27:00,54.3,48.6,29.89,SE,140,0.0,14.0,81,0.00,,,0.00,WUHU216DAVISVP2,2013-11-18 20:27:00,
2013-11-18 12:28:00,54.2,48.5,29.89,SE,143,0.0,6.0,81,0.00,,,0.00,WUHU216DAVISVP2,2013-11-18 20:28:00,
2013-11-18 12:29:00,54.1,48.8,29.89,SE,140,0.0,5.0,82,0.00,,,0.00,WUHU216DAVISVP2,2013-11-18 20:29:00,
2013-11-18 12:30:00,54.0,48.7,29.89,SE,140,0.0,5.0,82,0.00,,,0.00,WUHU216DAVISVP2,2013-11-18 20:30:00,
2013-11-18 12:32:00,53.8,49.1,29.89,East,92,0.0,5.0,84,0.01,,,0.01,WUHU216DAVISVP2,2013-11-18 20:32:00,
2013-11-18 12:33:00,53.7,49.0,29.89,SSE,168,0.0,5.0,84,0.01,,,0.01,WUHU216DAVISVP2,2013-11-18 20:33:00,
2013-11-18 12:34:00,53.6,49.2,29.89,SSW,202,0.0,5.0,85,0.01,,,0.01,WUHU216DAVISVP2,2013-11-18 20:34:00,
2013-11-18 12:35:00,53.6,49.2,29.89,ESE,110,0.0,5.0,85,0.01,,,0.01,WUHU216DAVISVP2,2013-11-18 20:35:00,
2013-11-18 12:37:00,53.3,49.2,29.89,SSE,161,0.0,4.0,86,0.02,,,0.02,WUHU216DAVISVP2,2013-11-18 20:37:00,
2013-11-18 12:38:00,53.3,49.2,29.89,SSE,161,0.0,4.0,86,0.02,,,0.02,WUHU216DAVISVP2,2013-11-18 20:38:00,
2013-11-18 12:39:00,53.2,49.4,29.88,ESE,102,0.0,4.0,87,0.02,,,0.02,WUHU216DAVISVP2,2013-11-18 20:39:00,
2013-11-18 12:40:00,53.1,49.3,29.89,SSE,165,0.0,4.0,87,0.02,,,0.02,WUHU216DAVISVP2,2013-11-18 20:40:00,
2013-11-18 12:43:00,52.8,49.0,29.88,ESE,113,0.0,4.0,87,0.03,,,0.03,WUHU216DAVISVP2,2013-11-18 20:43:00,
2013-11-18 12:44:00,52.8,49.3,29.88,South,174,0.0,4.0,88,0.03,,,0.03,WUHU216DAVISVP2,2013-11-18 20:44:00,
2013-11-18 12:45:00,52.7,49.5,29.88,South,191,0.0,4.0,89,0.04,,,0.04,WUHU216DAVISVP2,2013-11-18 20:45:00,
2013-11-18 12:48:00,52.5,49.6,29.88,SSE,150,0.0,2.0,90,0.04,,,0.04,WUHU216DAVISVP2,2013-11-18 20:48:00,
2013-11-18 12:49:00,52.5,49.6,29.88,SSE,150,0.0,2.0,90,0.04,,,0.04,WUHU216DAVISVP2,2013-11-18 20:49:00,
2013-11-18 12:50:00,52.4,49.5,29.88,ESE,112,1.0,2.0,90,0.04,,,0.04,WUHU216DAVISVP2,2013-11-18 20:50:00,
2013-11-18 12:51:00,52.3,49.4,29.88,SE,131,0.0,2.0,90,0.05,,,0.05,WUHU216DAVISVP2,2013-11-18 20:51:00,
2013-11-18 12:54:00,52.1,49.2,29.88,SSE,153,0.0,2.0,90,0.05,,,0.05,WUHU216DAVISVP2,2013-11-18 20:54:00,
2013-11-18 12:55:00,52.1,49.5,29.88,SE,124,0.0,2.0,91,0.05,,,0.05,WUHU216DAVISVP2,2013-11-18 20:55:00,
2013-11-18 12:56:00,52.0,49.4,29.88,SSE,158,0.0,2.0,91,0.05,,,0.05,WUHU216DAVISVP2,2013-11-18 20:56:00,
2013-11-18 12:59:00,51.9,49.3,29.88,SSE,152,0.0,2.0,91,0.06,,,0.06,WUHU216DAVISVP2,2013-11-18 20:59:00,
2013-11-18 13:00:00,51.9,49.6,29.87,East,86,0.0,2.0,92,0.06,,,0.06,WUHU216DAVISVP2,2013-11-18 21:00:00,
2013-11-18 13:01:00,51.9,49.6,29.87,SSE,161,0.0,2.0,92,0.06,,,0.06,WUHU216DAVISVP2,2013-11-18 21:01:00,
2013-11-18 13:04:00,51.7,49.4,29.87,SSW,213,1.0,2.0,92,0.07,,,0.07,WUHU216DAVISVP2,2013-11-18 21:04:00,
2013-11-18 13:05:00,51.7,49.4,29.87,SE,140,0.0,2.0,92,0.07,,,0.07,WUHU216DAVISVP2,2013-11-18 21:05:00,
2013-11-18 13:06:00,51.7,49.4,29.88,SE,144,0.0,2.0,92,0.07,,,0.07,WUHU216DAVISVP2,2013-11-18 21:06:00,
2013-11-18 13:07:00,51.7,49.4,29.88,SSE,151,0.0,2.0,92,0.07,,,0.07,WUHU216DAVISVP2,2013-11-18 21:07:00,
2013-11-18 13:09:00,51.6,49.6,29.87,ESE,115,1.0,2.0,93,0.07,,,0.07,WUHU216DAVISVP2,2013-11-18 21:09:00,
2013-11-18 13:10:00,51.6,49.6,29.87,ESE,123,0.0,2.0,93,0.08,,,0.08,WUHU216DAVISVP2,2013-11-18 21:10:00,
2013-11-18 13:11:00,51.6,49.6,29.87,South,189,0.0,2.0,93,0.08,,,0.08,WUHU216DAVISVP2,2013-11-18 21:11:00,
2013-11-18 13:12:00,51.5,49.5,29.88,ESE,107,0.0,2.0,93,0.08,,,0.08,WUHU216DAVISVP2,2013-11-18 21:12:00,
2013-11-18 13:14:00,51.5,49.5,29.88,SSE,165,0.0,2.0,93,0.09,,,0.09,WUHU216DAVISVP2,2013-11-18 21:14:00,
2013-11-18 13:15:00,51.5,49.5,29.88,SSE,165,0.0,2.0,93,0.09,,,0.09,WUHU216DAVISVP2,2013-11-18 21:15:00,
2013-11-18 13:16:00,51.5,49.5,29.87,South,169,1.0,2.0,93,0.09,,,0.09,WUHU216DAVISVP2,2013-11-18 21:16:00,
2013-11-18 13:17:00,51.4,49.4,29.87,SE,143,0.0,2.0,93,0.09,,,0.09,WUHU216DAVISVP2,2013-11-18 21:17:00,
2013-11-18 13:19:00,51.4,49.4,29.87,SSE,166,0.0,2.0,93,0.10,,,0.10,WUHU216DAVISVP2,2013-11-18 21:19:00,
2013-11-18 13:20:00,51.4,49.4,29.87,SSE,152,0.0,2.0,93,0.10,,,0.10,WUHU216DAVISVP2,2013-11-18 21:20:00,
2013-11-18 13:21:00,51.4,49.7,29.87,SSE,153,0.0,2.0,94,0.10,,,0.10,WUHU216DAVISVP2,2013-11-18 21:21:00,
2013-11-18 13:23:00,51.4,49.7,29.87,SSE,153,0.0,2.0,94,0.11,,,0.11,WUHU216DAVISVP2,2013-11-18 21:23:00,
2013-11-18 13:25:00,51.4,49.7,29.87,SSE,153,0.0,2.0,94,0.11,,,0.11,WUHU216DAVISVP2,2013-11-18 21:25:00,
2013-11-18 13:26:00,51.4,49.7,29.87,ESE,123,0.0,2.0,94,0.11,,,0.11,WUHU216DAVISVP2,2013-11-18 21:26:00,
2013-11-18 13:28:00,51.4,49.7,29.87,ESE,111,0.0,2.0,94,0.12,,,0.12,WUHU216DAVISVP2,2013-11-18 21:28:00,
2013-11-18 13:30:00,51.4,49.7,29.87,ESE,111,0.0,2.0,94,0.12,,,0.12,WUHU216DAVISVP2,2013-11-18 21:30:00,
2013-11-18 13:31:00,51.4,49.7,29.86,ESE,111,0.0,2.0,94,0.11,,,0.12,WUHU216DAVISVP2,2013-11-18 21:31:00,
2013-11-18 13:33:00,51.4,49.7,29.86,ESE,119,0.0,2.0,94,0.11,,,0.12,WUHU216DAVISVP2,2013-11-18 21:33:00,
2013-11-18 13:35:00,51.3,49.6,29.86,ESE,118,0.0,2.0,94,0.11,,,0.12,WUHU216DAVISVP2,2013-11-18 21:35:00,
2013-11-18 13:36:00,51.3,49.6,29.86,SSE,158,0.0,2.0,94,0.12,,,0.13,WUHU216DAVISVP2,2013-11-18 21:36:00,
2013-11-18 13:37:00,51.3,49.6,29.86,SE,127,0.0,2.0,94,0.11,,,0.13,WUHU216DAVISVP2,2013-11-18 21:37:00,
2013-11-18 13:39:00,51.3,49.9,29.86,SE,126,0.0,2.0,95,0.11,,,0.13,WUHU216DAVISVP2,2013-11-18 21:39:00,
2013-11-18 13:40:00,51.3,49.9,29.86,SE,127,0.0,2.0,95,0.12,,,0.14,WUHU216DAVISVP2,2013-11-18 21:40:00,
2013-11-18 13:41:00,51.3,49.9,29.86,SE,127,0.0,2.0,95,0.11,,,0.14,WUHU216DAVISVP2,2013-11-18 21:41:00,
2013-11-18 13:42:00,51.3,49.9,29.86,East,98,0.0,2.0,95,0.11,,,0.14,WUHU216DAVISVP2,2013-11-18 21:42:00,
2013-11-18 13:44:00,51.3,49.9,29.86,SE,131,0.0,2.0,95,0.12,,,0.15,WUHU216DAVISVP2,2013-11-18 21:44:00,
2013-11-18 13:45:00,51.3,49.9,29.86,SSE,158,0.0,1.0,95,0.11,,,0.15,WUHU216DAVISVP2,2013-11-18 21:45:00,
2013-11-18 13:46:00,51.3,49.9,29.86,SSW,193,0.0,1.0,95,0.12,,,0.16,WUHU216DAVISVP2,2013-11-18 21:46:00,
2013-11-18 13:47:00,51.3,49.9,29.86,SSE,151,0.0,1.0,95,0.12,,,0.16,WUHU216DAVISVP2,2013-11-18 21:47:00,
2013-11-18 13:49:00,51.3,49.9,29.86,South,190,0.0,2.0,95,0.12,,,0.16,WUHU216DAVISVP2,2013-11-18 21:49:00,
2013-11-18 13:50:00,51.3,49.9,29.86,SE,128,1.0,2.0,95,0.13,,,0.17,WUHU216DAVISVP2,2013-11-18 21:50:00,
2013-11-18 13:51:00,51.2,49.8,29.86,ESE,120,0.0,2.0,95,0.12,,,0.17,WUHU216DAVISVP2,2013-11-18 21:51:00,
2013-11-18 13:52:00,51.2,49.8,29.86,ESE,120,0.0,2.0,95,0.12,,,0.17,WUHU216DAVISVP2,2013-11-18 21:52:00,
2013-11-18 13:54:00,51.2,49.8,29.86,SE,131,1.0,2.0,95,0.12,,,0.17,WUHU216DAVISVP2,2013-11-18 21:54:00,
2013-11-18 13:55:00,51.2,49.8,29.86,ESE,106,0.0,2.0,95,0.13,,,0.18,WUHU216DAVISVP2,2013-11-18 21:55:00,
2013-11-18 13:57:00,51.2,49.8,29.86,East,100,0.0,2.0,95,0.12,,,0.18,WUHU216DAVISVP2,2013-11-18 21:57:00,
2013-11-18 13:58:00,51.2,49.8,29.86,SE,134,0.0,2.0,95,0.12,,,0.18,WUHU216DAVISVP2,2013-11-18 21:58:00,
2013-11-18 14:00:00,51.2,49.8,29.85,ESE,116,0.0,2.0,95,0.13,,,0.19,WUHU216DAVISVP2,2013-11-18 22:00:00,
2013-11-18 14:01:00,51.2,49.8,29.85,East,98,0.0,2.0,95,0.13,,,0.19,WUHU216DAVISVP2,2013-11-18 22:01:00,
2013-11-18 14:02:00,51.2,49.8,29.85,ESE,103,0.0,2.0,95,0.13,,,0.19,WUHU216DAVISVP2,2013-11-18 22:02:00,
2013-11-18 14:03:00,51.2,49.8,29.85,East,98,2.0,2.0,95,0.12,,,0.19,WUHU216DAVISVP2,2013-11-18 22:03:00,
2013-11-18 14:05:00,51.2,49.8,29.85,ESE,120,0.0,2.0,95,0.12,,,0.19,WUHU216DAVISVP2,2013-11-18 22:05:00,
2013-11-18 14:06:00,51.1,49.7,29.85,ESE,120,0.0,2.0,95,0.12,,,0.19,WUHU216DAVISVP2,2013-11-18 22:06:00,
2013-11-18 14:07:00,51.1,49.7,29.85,ESE,120,0.0,2.0,95,0.13,,,0.20,WUHU216DAVISVP2,2013-11-18 22:07:00,
2013-11-18 14:08:00,51.2,49.8,29.85,ESE,120,0.0,2.0,95,0.13,,,0.20,WUHU216DAVISVP2,2013-11-18 22:08:00,
2013-11-18 14:09:00,51.2,50.1,29.85,ESE,120,0.0,2.0,96,0.13,,,0.20,WUHU216DAVISVP2,2013-11-18 22:09:00,
2013-11-18 14:10:00,51.2,49.8,29.85,NE,41,0.0,2.0,95,0.12,,,0.20,WUHU216DAVISVP2,2013-11-18 22:10:00,
2013-11-18 14:11:00,51.2,49.8,29.85,ESE,110,0.0,2.0,95,0.12,,,0.20,WUHU216DAVISVP2,2013-11-18 22:11:00,
2013-11-18 14:12:00,51.1,49.7,29.85,ESE,110,0.0,2.0,95,0.12,,,0.20,WUHU216DAVISVP2,2013-11-18 22:12:00,
2013-11-18 14:13:00,51.1,49.7,29.85,ESE,110,0.0,2.0,95,0.12,,,0.20,WUHU216DAVISVP2,2013-11-18 22:13:00,
2013-11-18 14:14:00,51.1,49.7,29.85,ESE,110,0.0,2.0,95,0.11,,,0.20,WUHU216DAVISVP2,2013-11-18 22:14:00,
2013-11-18 14:16:00,51.1,50.0,29.85,ESE,108,1.0,2.0,96,0.11,,,0.20,WUHU216DAVISVP2,2013-11-18 22:16:00,
2013-11-18 14:17:00,51.1,49.7,29.85,SSE,153,0.0,3.0,95,0.11,,,0.21,WUHU216DAVISVP2,2013-11-18 22:17:00,
2013-11-18 14:18:00,51.0,49.6,29.84,WSW,246,2.0,3.0,95,0.11,,,0.21,WUHU216DAVISVP2,2013-11-18 22:18:00,
2013-11-18 14:19:00,51.0,49.6,29.84,ESE,123,0.0,3.0,95,0.11,,,0.21,WUHU216DAVISVP2,2013-11-18 22:19:00,
2013-11-18 14:21:00,51.0,49.6,29.84,SSE,166,0.0,3.0,95,0.11,,,0.21,WUHU216DAVISVP2,2013-11-18 22:21:00,
2013-11-18 14:23:00,51.0,49.6,29.84,East,98,2.0,4.0,95,0.10,,,0.21,WUHU216DAVISVP2,2013-11-18 22:23:00,
2013-11-18 14:24:00,51.0,49.6,29.84,South,179,1.0,4.0,95,0.10,,,0.21,WUHU216DAVISVP2,2013-11-18 22:24:00,
2013-11-18 14:25:00,51.0,49.6,29.84,SSE,150,0.0,4.0,95,0.11,,,0.22,WUHU216DAVISVP2,2013-11-18 22:25:00,
2013-11-18 14:26:00,51.0,49.6,29.84,SE,141,0.0,4.0,95,0.11,,,0.22,WUHU216DAVISVP2,2013-11-18 22:26:00,
2013-11-18 14:28:00,51.0,49.6,29.85,South,189,1.0,4.0,95,0.11,,,0.23,WUHU216DAVISVP2,2013-11-18 22:28:00,
2013-11-18 14:29:00,51.0,49.6,29.85,SW,219,1.0,4.0,95,0.11,,,0.23,WUHU216DAVISVP2,2013-11-18 22:29:00,
2013-11-18 14:30:00,51.0,49.6,29.85,ESE,113,2.0,4.0,95,0.11,,,0.23,WUHU216DAVISVP2,2013-11-18 22:30:00,
2013-11-18 14:31:00,51.0,49.6,29.85,East,96,1.0,4.0,95,0.11,,,0.23,WUHU216DAVISVP2,2013-11-18 22:31:00,
2013-11-18 14:34:00,51.0,49.6,29.85,SE,136,2.0,4.0,95,0.12,,,0.24,WUHU216DAVISVP2,2013-11-18 22:34:00,
2013-11-18 14:35:00,51.0,49.6,29.85,South,179,0.0,4.0,95,0.11,,,0.24,WUHU216DAVISVP2,2013-11-18 22:35:00,
2013-11-18 14:36:00,51.0,49.6,29.85,East,98,1.0,4.0,95,0.12,,,0.25,WUHU216DAVISVP2,2013-11-18 22:36:00,
2013-11-18 14:37:00,51.0,49.6,29.85,SSE,156,1.0,4.0,95,0.12,,,0.25,WUHU216DAVISVP2,2013-11-18 22:37:00,
2013-11-18 14:39:00,51.0,49.6,29.85,SSE,162,0.0,4.0,95,0.12,,,0.25,WUHU216DAVISVP2,2013-11-18 22:39:00,
2013-11-18 14:40:00,51.0,49.6,29.84,SSE,161,0.0,4.0,95,0.12,,,0.26,WUHU216DAVISVP2,2013-11-18 22:40:00,
2013-11-18 14:41:00,51.0,49.9,29.85,South,176,0.0,4.0,96,0.12,,,0.26,WUHU216DAVISVP2,2013-11-18 22:41:00,
2013-11-18 14:42:00,51.0,49.6,29.84,SSW,194,0.0,4.0,95,0.11,,,0.26,WUHU216DAVISVP2,2013-11-18 22:42:00,
2013-11-18 14:44:00,51.0,49.9,29.84,SSW,192,0.0,4.0,96,0.11,,,0.27,WUHU216DAVISVP2,2013-11-18 22:44:00,
2013-11-18 14:45:00,51.0,49.9,29.84,South,170,0.0,4.0,96,0.12,,,0.27,WUHU216DAVISVP2,2013-11-18 22:45:00,
2013-11-18 14:46:00,51.0,49.9,29.84,SSW,192,3.0,3.0,96,0.11,,,0.27,WUHU216DAVISVP2,2013-11-18 22:46:00,
2013-11-18 14:48:00,50.9,49.5,29.84,SE,132,0.0,3.0,95,0.11,,,0.27,WUHU216DAVISVP2,2013-11-18 22:48:00,
2013-11-18 14:49:00,50.9,49.5,29.84,SE,127,0.0,3.0,95,0.12,,,0.28,WUHU216DAVISVP2,2013-11-18 22:49:00,
2013-11-18 14:51:00,50.9,49.5,29.84,SSE,158,0.0,4.0,95,0.11,,,0.28,WUHU216DAVISVP2,2013-11-18 22:51:00,
2013-11-18 14:53:00,50.9,49.5,29.84,SE,125,1.0,4.0,95,0.11,,,0.28,WUHU216DAVISVP2,2013-11-18 22:53:00,
2013-11-18 14:54:00,50.9,49.8,29.84,SSE,167,0.0,4.0,96,0.11,,,0.28,WUHU216DAVISVP2,2013-11-18 22:54:00,
2013-11-18 14:56:00,50.9,49.8,29.84,SSW,210,1.0,4.0,96,0.11,,,0.29,WUHU216DAVISVP2,2013-11-18 22:56:00,
2013-11-18 14:57:00,50.9,49.8,29.84,SE,132,1.0,4.0,96,0.11,,,0.29,WUHU216DAVISVP2,2013-11-18 22:57:00,
2013-11-18 14:58:00,50.9,49.8,29.84,SE,146,0.0,4.0,96,0.11,,,0.29,WUHU216DAVISVP2,2013-11-18 22:58:00,
2013-11-18 14:59:00,50.9,49.8,29.84,ESE,113,0.0,4.0,96,0.11,,,0.29,WUHU216DAVISVP2,2013-11-18 22:59:00,
2013-11-18 15:01:00,50.9,49.8,29.83,SE,127,0.0,4.0,96,0.11,,,0.30,WUHU216DAVISVP2,2013-11-18 23:01:00,
2013-11-18 15:02:00,50.9,49.8,29.83,SE,142,0.0,4.0,96,0.11,,,0.30,WUHU216DAVISVP2,2013-11-18 23:02:00,
2013-11-18 15:03:00,50.9,49.8,29.83,ESE,121,0.0,4.0,96,0.11,,,0.30,WUHU216DAVISVP2,2013-11-18 23:03:00,
2013-11-18 15:04:00,50.9,49.5,29.83,WSW,249,2.0,4.0,95,0.11,,,0.30,WUHU216DAVISVP2,2013-11-18 23:04:00,
2013-11-18 15:05:00,50.9,49.8,29.83,ENE,72,1.0,4.0,96,0.11,,,0.30,WUHU216DAVISVP2,2013-11-18 23:05:00,
2013-11-18 15:06:00,50.9,49.5,29.83,ESE,111,0.0,4.0,95,0.11,,,0.30,WUHU216DAVISVP2,2013-11-18 23:06:00,
2013-11-18 15:07:00,50.9,49.5,29.83,East,94,2.0,4.0,95,0.10,,,0.30,WUHU216DAVISVP2,2013-11-18 23:07:00,
2013-11-18 15:08:00,50.9,49.5,29.83,SW,225,3.0,4.0,95,0.11,,,0.31,WUHU216DAVISVP2,2013-11-18 23:08:00,
2013-11-18 15:09:00,50.9,49.5,29.83,East,101,4.0,4.0,95,0.11,,,0.31,WUHU216DAVISVP2,2013-11-18 23:09:00,
2013-11-18 15:10:00,50.9,49.5,29.83,ESE,119,0.0,4.0,95,0.11,,,0.31,WUHU216DAVISVP2,2013-11-18 23:10:00,
2013-11-18 15:12:00,51.0,49.6,29.83,SE,126,2.0,4.0,95,0.11,,,0.31,WUHU216DAVISVP2,2013-11-18 23:12:00,
2013-11-18 15:13:00,51.0,49.6,29.83,SSE,167,0.0,4.0,95,0.11,,,0.31,WUHU216DAVISVP2,2013-11-18 23:13:00,
2013-11-18 15:14:00,51.0,49.6,29.83,East,87,1.0,4.0,95,0.11,,,0.31,WUHU216DAVISVP2,2013-11-18 23:14:00,
2013-11-18 15:15:00,51.0,49.6,29.83,SE,134,1.0,4.0,95,0.12,,,0.32,WUHU216DAVISVP2,2013-11-18 23:15:00,
2013-11-18 15:17:00,51.0,49.6,29.83,SE,144,0.0,4.0,95,0.12,,,0.32,WUHU216DAVISVP2,2013-11-18 23:17:00,
2013-11-18 15:18:00,51.0,49.6,29.83,SE,127,0.0,4.0,95,0.11,,,0.32,WUHU216DAVISVP2,2013-11-18 23:18:00,
2013-11-18 15:19:00,51.0,49.6,29.83,East,101,0.0,4.0,95,0.11,,,0.32,WUHU216DAVISVP2,2013-11-18 23:19:00,
2013-11-18 15:20:00,51.0,49.6,29.83,SE,140,2.0,4.0,95,0.12,,,0.33,WUHU216DAVISVP2,2013-11-18 23:20:00,
2013-11-18 15:22:00,51.0,49.9,29.83,SSW,210,2.0,4.0,96,0.12,,,0.33,WUHU216DAVISVP2,2013-11-18 23:22:00,
2013-11-18 15:23:00,51.0,49.9,29.83,ESE,113,2.0,4.0,96,0.13,,,0.34,WUHU216DAVISVP2,2013-11-18 23:23:00,
2013-11-18 15:24:00,51.0,49.9,29.83,SSW,194,2.0,4.0,96,0.12,,,0.34,WUHU216DAVISVP2,2013-11-18 23:24:00,
2013-11-18 15:25:00,51.0,49.9,29.83,SSW,196,2.0,4.0,96,0.12,,,0.34,WUHU216DAVISVP2,2013-11-18 23:25:00,
2013-11-18 15:26:00,51.0,49.9,29.83,SE,130,3.0,7.0,96,0.13,,,0.35,WUHU216DAVISVP2,2013-11-18 23:26:00,
2013-11-18 15:27:00,51.0,49.9,29.82,ESE,113,0.0,7.0,96,0.13,,,0.35,WUHU216DAVISVP2,2013-11-18 23:27:00,
2013-11-18 15:28:00,51.1,50.0,29.82,South,186,1.0,7.0,96,0.13,,,0.35,WUHU216DAVISVP2,2013-11-18 23:28:00,
2013-11-18 15:29:00,51.1,50.0,29.82,East,94,0.0,7.0,96,0.12,,,0.35,WUHU216DAVISVP2,2013-11-18 23:29:00,
2013-11-18 15:30:00,51.1,50.0,29.82,South,185,0.0,7.0,96,0.12,,,0.35,WUHU216DAVISVP2,2013-11-18 23:30:00,
2013-11-18 15:31:00,51.1,50.0,29.82,SSE,160,2.0,7.0,96,0.11,,,0.35,WUHU216DAVISVP2,2013-11-18 23:31:00,
2013-11-18 15:32:00,51.1,50.0,29.82,ESE,116,1.0,7.0,96,0.11,,,0.35,WUHU216DAVISVP2,2013-11-18 23:32:00,
2013-11-18 15:33:00,51.1,49.7,29.82,SW,216,0.0,7.0,95,0.12,,,0.36,WUHU216DAVISVP2,2013-11-18 23:33:00,
2013-11-18 15:34:00,51.1,49.7,29.82,ESE,108,1.0,7.0,95,0.12,,,0.36,WUHU216DAVISVP2,2013-11-18 23:34:00,
2013-11-18 15:35:00,51.2,49.8,29.83,SSE,153,1.0,7.0,95,0.12,,,0.36,WUHU216DAVISVP2,2013-11-18 23:35:00,
2013-11-18 15:36:00,51.2,49.8,29.83,ESE,113,1.0,7.0,95,0.11,,,0.36,WUHU216DAVISVP2,2013-11-18 23:36:00,
2013-11-18 15:38:00,51.2,50.1,29.83,South,188,0.0,7.0,96,0.11,,,0.36,WUHU216DAVISVP2,2013-11-18 23:38:00,
2013-11-18 15:39:00,51.2,49.8,29.82,East,93,1.0,7.0,95,0.11,,,0.36,WUHU216DAVISVP2,2013-11-18 23:39:00,
2013-11-18 15:40:00,51.2,49.8,29.83,SSE,150,0.0,7.0,95,0.10,,,0.36,WUHU216DAVISVP2,2013-11-18 23:40:00,
2013-11-18 15:41:00,51.2,49.8,29.83,SSE,149,0.0,7.0,95,0.10,,,0.36,WUHU216DAVISVP2,2013-11-18 23:41:00,
2013-11-18 15:43:00,51.2,50.1,29.82,SE,125,1.0,7.0,96,0.10,,,0.36,WUHU216DAVISVP2,2013-11-18 23:43:00,
2013-11-18 15:44:00,51.2,50.1,29.82,ESE,119,0.0,5.0,96,0.09,,,0.36,WUHU216DAVISVP2,2013-11-18 23:44:00,
2013-11-18 15:45:00,51.2,50.1,29.82,ESE,110,0.0,4.0,96,0.09,,,0.36,WUHU216DAVISVP2,2013-11-18 23:45:00,
2013-11-18 15:46:00,51.2,50.1,29.82,South,176,1.0,4.0,96,0.09,,,0.36,WUHU216DAVISVP2,2013-11-18 23:46:00,
2013-11-18 15:47:00,51.2,50.1,29.82,East,89,1.0,4.0,96,0.09,,,0.36,WUHU216DAVISVP2,2013-11-18 23:47:00,
2013-11-18 15:48:00,51.2,50.1,29.82,WSW,240,1.0,4.0,96,0.08,,,0.36,WUHU216DAVISVP2,2013-11-18 23:48:00,
2013-11-18 15:49:00,51.2,50.1,29.82,SSW,200,2.0,4.0,96,0.08,,,0.36,WUHU216DAVISVP2,2013-11-18 23:49:00,
2013-11-18 15:50:00,51.2,50.1,29.82,SE,134,0.0,4.0,96,0.08,,,0.36,WUHU216DAVISVP2,2013-11-18 23:50:00,
2013-11-18 15:51:00,51.2,50.1,29.82,South,176,0.0,4.0,96,0.08,,,0.36,WUHU216DAVISVP2,2013-11-18 23:51:00,
2013-11-18 15:53:00,51.2,50.1,29.82,SW,215,1.0,4.0,96,0.08,,,0.36,WUHU216DAVISVP2,2013-11-18 23:53:00,
2013-11-18 15:55:00,51.2,50.1,29.82,ESE,109,0.0,4.0,96,0.08,,,0.37,WUHU216DAVISVP2,2013-11-18 23:55:00,
2013-11-18 15:56:00,51.2,50.1,29.82,ESE,122,0.0,4.0,96,0.08,,,0.37,WUHU216DAVISVP2,2013-11-18 23:56:00,
2013-11-18 15:57:00,51.2,50.1,29.82,SE,146,1.0,5.0,96,0.08,,,0.37,WUHU216DAVISVP2,2013-11-18 23:57:00,
2013-11-18 15:58:00,51.3,50.2,29.82,SE,129,0.0,5.0,96,0.08,,,0.37,WUHU216DAVISVP2,2013-11-18 23:58:00,
2013-11-18 15:59:00,51.2,50.1,29.82,ESE,109,1.0,5.0,96,0.08,,,0.37,WUHU216DAVISVP2,2013-11-18 23:59:00,
2013-11-18 16:01:00,51.3,50.2,29.82,ESE,117,3.0,5.0,96,0.07,,,0.37,WUHU216DAVISVP2,2013-11-19 00:01:00,
2013-11-18 16:02:00,51.3,50.2,29.82,North,4,0.0,5.0,96,0.07,,,0.37,WUHU216DAVISVP2,2013-11-19 00:02:00,
2013-11-18 16:04:00,51.3,50.2,29.82,SE,146,1.0,5.0,96,0.07,,,0.37,WUHU216DAVISVP2,2013-11-19 00:04:00,
2013-11-18 16:06:00,51.3,50.2,29.81,SSE,166,1.0,5.0,96,0.07,,,0.37,WUHU216DAVISVP2,2013-11-19 00:06:00,
2013-11-18 16:07:00,51.3,50.2,29.82,SSE,159,1.0,5.0,96,0.07,,,0.37,WUHU216DAVISVP2,2013-11-19 00:07:00,
2013-11-18 16:09:00,51.3,50.2,29.82,SE,141,0.0,5.0,96,0.06,,,0.37,WUHU216DAVISVP2,2013-11-19 00:09:00,
2013-11-18 16:11:00,51.3,50.2,29.82,SE,131,0.0,5.0,96,0.06,,,0.37,WUHU216DAVISVP2,2013-11-19 00:11:00,
2013-11-18 16:12:00,51.3,50.2,29.82,SE,130,0.0,5.0,96,0.06,,,0.37,WUHU216DAVISVP2,2013-11-19 00:12:00,
2013-11-18 16:13:00,51.4,50.3,29.82,SSE,149,0.0,5.0,96,0.06,,,0.37,WUHU216DAVISVP2,2013-11-19 00:13:00,
2013-11-18 16:14:00,51.4,50.3,29.82,SW,216,1.0,5.0,96,0.05,,,0.37,WUHU216DAVISVP2,2013-11-19 00:14:00,
2013-11-18 16:17:00,51.4,50.3,29.82,ESE,120,0.0,5.0,96,0.05,,,0.37,WUHU216DAVISVP2,2013-11-19 00:17:00,
2013-11-18 16:18:00,51.4,50.3,29.82,ESE,117,0.0,5.0,96,0.06,,,0.38,WUHU216DAVISVP2,2013-11-19 00:18:00,
2013-11-18 16:19:00,51.5,50.4,29.82,ESE,105,0.0,5.0,96,0.05,,,0.38,WUHU216DAVISVP2,2013-11-19 00:19:00,
2013-11-18 16:22:00,51.5,50.4,29.82,ESE,114,0.0,5.0,96,0.05,,,0.38,WUHU216DAVISVP2,2013-11-19 00:22:00,
2013-11-18 16:24:00,51.5,50.4,29.82,ESE,105,0.0,5.0,96,0.04,,,0.38,WUHU216DAVISVP2,2013-11-19 00:24:00,
2013-11-18 16:25:00,51.5,50.4,29.82,ESE,109,0.0,5.0,96,0.04,,,0.38,WUHU216DAVISVP2,2013-11-19 00:25:00,
2013-11-18 16:27:00,51.6,50.5,29.82,SSW,203,1.0,5.0,96,0.04,,,0.39,WUHU216DAVISVP2,2013-11-19 00:27:00,
2013-11-18 16:29:00,51.6,50.5,29.82,South,180,0.0,5.0,96,0.04,,,0.39,WUHU216DAVISVP2,2013-11-19 00:29:00,
2013-11-18 16:30:00,51.6,50.5,29.82,SSE,150,1.0,5.0,96,0.04,,,0.39,WUHU216DAVISVP2,2013-11-19 00:30:00,
2013-11-18 16:32:00,51.6,50.5,29.82,SE,137,0.0,5.0,96,0.05,,,0.40,WUHU216DAVISVP2,2013-11-19 00:32:00,
2013-11-18 16:34:00,51.6,50.5,29.81,South,186,3.0,5.0,96,0.04,,,0.40,WUHU216DAVISVP2,2013-11-19 00:34:00,
2013-11-18 16:35:00,51.6,50.5,29.81,SSE,150,0.0,5.0,96,0.04,,,0.40,WUHU216DAVISVP2,2013-11-19 00:35:00,
2013-11-18 16:37:00,51.6,50.5,29.81,SE,138,0.0,5.0,96,0.05,,,0.41,WUHU216DAVISVP2,2013-11-19 00:37:00,
2013-11-18 16:39:00,51.6,50.5,29.81,SW,215,2.0,5.0,96,0.05,,,0.41,WUHU216DAVISVP2,2013-11-19 00:39:00,
2013-11-18 16:40:00,51.6,50.5,29.81,SSE,148,0.0,5.0,96,0.06,,,0.42,WUHU216DAVISVP2,2013-11-19 00:40:00,
2013-11-18 16:41:00,51.6,50.5,29.81,ESE,121,0.0,5.0,96,0.06,,,0.42,WUHU216DAVISVP2,2013-11-19 00:41:00,
2013-11-18 16:42:00,51.6,50.5,29.81,SE,141,0.0,5.0,96,0.06,,,0.42,WUHU216DAVISVP2,2013-11-19 00:42:00,
2013-11-18 16:45:00,51.6,50.5,29.81,SE,127,0.0,5.0,96,0.06,,,0.42,WUHU216DAVISVP2,2013-11-19 00:45:00,
2013-11-18 16:46:00,51.6,50.5,29.81,SE,130,2.0,5.0,96,0.06,,,0.42,WUHU216DAVISVP2,2013-11-19 00:46:00,
2013-11-18 16:47:00,51.7,50.6,29.81,NNE,20,0.0,5.0,96,0.06,,,0.42,WUHU216DAVISVP2,2013-11-19 00:47:00,
2013-11-18 16:50:00,51.7,50.6,29.81,South,188,1.0,5.0,96,0.07,,,0.43,WUHU216DAVISVP2,2013-11-19 00:50:00,
2013-11-18 16:51:00,51.7,50.6,29.81,SE,144,1.0,5.0,96,0.07,,,0.43,WUHU216DAVISVP2,2013-11-19 00:51:00,
2013-11-18 16:52:00,51.7,50.6,29.81,SE,129,1.0,6.0,96,0.07,,,0.43,WUHU216DAVISVP2,2013-11-19 00:52:00,
2013-11-18 16:55:00,51.8,50.7,29.81,South,191,0.0,6.0,96,0.06,,,0.43,WUHU216DAVISVP2,2013-11-19 00:55:00,
2013-11-18 16:56:00,51.8,50.7,29.81,SE,141,1.0,6.0,96,0.07,,,0.44,WUHU216DAVISVP2,2013-11-19 00:56:00,
2013-11-18 16:57:00,51.8,50.7,29.81,SW,231,1.0,6.0,96,0.07,,,0.44,WUHU216DAVISVP2,2013-11-19 00:57:00,
2013-11-18 16:58:00,51.8,50.7,29.81,SE,132,1.0,6.0,96,0.07,,,0.44,WUHU216DAVISVP2,2013-11-19 00:58:00,
2013-11-18 17:00:00,51.8,50.7,29.81,SE,141,0.0,6.0,96,0.07,,,0.44,WUHU216DAVISVP2,2013-11-19 01:00:00,
2013-11-18 17:01:00,51.8,50.7,29.81,South,178,1.0,6.0,96,0.07,,,0.44,WUHU216DAVISVP2,2013-11-19 01:01:00,
2013-11-18 17:02:00,51.8,50.7,29.82,WSW,257,0.0,6.0,96,0.07,,,0.44,WUHU216DAVISVP2,2013-11-19 01:02:00,
2013-11-18 17:03:00,51.8,50.7,29.82,NW,312,2.0,6.0,96,0.07,,,0.44,WUHU216DAVISVP2,2013-11-19 01:03:00,
2013-11-18 17:05:00,51.9,50.8,29.82,East,101,0.0,6.0,96,0.07,,,0.44,WUHU216DAVISVP2,2013-11-19 01:05:00,
2013-11-18 17:06:00,51.9,50.8,29.82,SW,221,1.0,6.0,96,0.07,,,0.44,WUHU216DAVISVP2,2013-11-19 01:06:00,
2013-11-18 17:07:00,51.9,50.8,29.82,SW,235,1.0,6.0,96,0.07,,,0.44,WUHU216DAVISVP2,2013-11-19 01:07:00,
2013-11-18 17:08:00,51.9,50.8,29.81,SE,139,3.0,6.0,96,0.07,,,0.44,WUHU216DAVISVP2,2013-11-19 01:08:00,
2013-11-18 17:10:00,52.0,50.9,29.81,West,273,1.0,6.0,96,0.08,,,0.45,WUHU216DAVISVP2,2013-11-19 01:10:00,
2013-11-18 17:11:00,52.0,50.9,29.81,WSW,248,4.0,6.0,96,0.08,,,0.45,WUHU216DAVISVP2,2013-11-19 01:11:00,
2013-11-18 17:12:00,52.0,50.9,29.81,South,188,1.0,5.0,96,0.08,,,0.45,WUHU216DAVISVP2,2013-11-19 01:12:00,
2013-11-18 17:13:00,52.0,50.9,29.81,ESE,117,0.0,5.0,96,0.08,,,0.45,WUHU216DAVISVP2,2013-11-19 01:13:00,
2013-11-18 17:16:00,52.1,51.0,29.81,WSW,237,0.0,5.0,96,0.08,,,0.45,WUHU216DAVISVP2,2013-11-19 01:16:00,
2013-11-18 17:17:00,52.1,51.0,29.81,SE,145,2.0,5.0,96,0.08,,,0.45,WUHU216DAVISVP2,2013-11-19 01:17:00,
2013-11-18 17:18:00,52.1,51.0,29.81,South,172,0.0,5.0,96,0.07,,,0.45,WUHU216DAVISVP2,2013-11-19 01:18:00,
2013-11-18 17:19:00,52.1,51.0,29.81,South,176,0.0,5.0,96,0.07,,,0.45,WUHU216DAVISVP2,2013-11-19 01:19:00,
2013-11-18 17:21:00,52.1,51.0,29.80,SSW,200,0.0,5.0,96,0.08,,,0.46,WUHU216DAVISVP2,2013-11-19 01:21:00,
2013-11-18 17:22:00,52.1,51.0,29.80,SE,124,0.0,5.0,96,0.08,,,0.46,WUHU216DAVISVP2,2013-11-19 01:22:00,
2013-11-18 17:23:00,52.1,51.0,29.80,ESE,122,0.0,5.0,96,0.08,,,0.46,WUHU216DAVISVP2,2013-11-19 01:23:00,
2013-11-18 17:24:00,52.1,51.0,29.80,SE,143,2.0,5.0,96,0.08,,,0.46,WUHU216DAVISVP2,2013-11-19 01:24:00,
2013-11-18 17:26:00,52.1,51.0,29.80,SE,129,6.0,7.0,96,0.07,,,0.46,WUHU216DAVISVP2,2013-11-19 01:26:00,
2013-11-18 17:28:00,52.2,51.1,29.80,South,170,1.0,7.0,96,0.07,,,0.46,WUHU216DAVISVP2,2013-11-19 01:28:00,
2013-11-18 17:29:00,52.2,51.1,29.80,WSW,240,0.0,7.0,96,0.07,,,0.46,WUHU216DAVISVP2,2013-11-19 01:29:00,
2013-11-18 17:30:00,52.2,51.1,29.80,SE,135,0.0,7.0,96,0.07,,,0.46,WUHU216DAVISVP2,2013-11-19 01:30:00,
2013-11-18 17:31:00,52.2,51.1,29.80,South,176,0.0,7.0,96,0.06,,,0.46,WUHU216DAVISVP2,2013-11-19 01:31:00,
2013-11-18 17:33:00,52.3,51.2,29.80,SE,124,1.0,7.0,96,0.06,,,0.46,WUHU216DAVISVP2,2013-11-19 01:33:00,
2013-11-18 17:34:00,52.3,51.2,29.80,ESE,116,9.0,9.0,96,0.06,,,0.46,WUHU216DAVISVP2,2013-11-19 01:34:00,
2013-11-18 17:35:00,52.3,51.2,29.80,SW,218,1.0,9.0,96,0.06,,,0.46,WUHU216DAVISVP2,2013-11-19 01:35:00,
2013-11-18 17:36:00,52.4,51.3,29.80,SSW,192,0.0,9.0,96,0.06,,,0.47,WUHU216DAVISVP2,2013-11-19 01:36:00,
2013-11-18 17:38:00,52.4,51.3,29.80,SE,137,1.0,9.0,96,0.06,,,0.47,WUHU216DAVISVP2,2013-11-19 01:38:00,
2013-11-18 17:39:00,52.4,51.3,29.80,South,174,1.0,9.0,96,0.06,,,0.47,WUHU216DAVISVP2,2013-11-19 01:39:00,
2013-11-18 17:40:00,52.4,51.3,29.80,SSE,155,1.0,9.0,96,0.05,,,0.47,WUHU216DAVISVP2,2013-11-19 01:40:00,
2013-11-18 17:41:00,52.4,51.3,29.80,South,178,2.0,9.0,96,0.05,,,0.47,WUHU216DAVISVP2,2013-11-19 01:41:00,
2013-11-18 17:43:00,52.4,51.3,29.80,SW,214,3.0,9.0,96,0.05,,,0.47,WUHU216DAVISVP2,2013-11-19 01:43:00,
2013-11-18 17:44:00,52.4,51.3,29.79,ESE,110,3.0,9.0,96,0.05,,,0.47,WUHU216DAVISVP2,2013-11-19 01:44:00,
2013-11-18 17:45:00,52.4,51.3,29.79,SE,129,0.0,9.0,96,0.05,,,0.47,WUHU216DAVISVP2,2013-11-19 01:45:00,
2013-11-18 17:46:00,52.5,51.4,29.80,SSW,200,1.0,9.0,96,0.05,,,0.47,WUHU216DAVISVP2,2013-11-19 01:46:00,
2013-11-18 17:48:00,52.5,51.4,29.80,South,173,3.0,9.0,96,0.05,,,0.47,WUHU216DAVISVP2,2013-11-19 01:48:00,
2013-11-18 17:50:00,52.6,51.5,29.79,South,179,1.0,12.0,96,0.04,,,0.47,WUHU216DAVISVP2,2013-11-19 01:50:00,
2013-11-18 17:51:00,52.6,51.5,29.80,South,169,1.0,12.0,96,0.04,,,0.47,WUHU216DAVISVP2,2013-11-19 01:51:00,
2013-11-18 17:52:00,52.6,51.5,29.79,South,185,3.0,12.0,96,0.04,,,0.47,WUHU216DAVISVP2,2013-11-19 01:52:00,
2013-11-18 17:53:00,52.7,51.6,29.80,SW,226,0.0,12.0,96,0.04,,,0.47,WUHU216DAVISVP2,2013-11-19 01:53:00,
2013-11-18 17:55:00,52.7,51.6,29.79,SSE,167,4.0,12.0,96,0.04,,,0.47,WUHU216DAVISVP2,2013-11-19 01:55:00,
2013-11-18 17:56:00,52.7,51.6,29.80,SSW,210,3.0,12.0,96,0.03,,,0.47,WUHU216DAVISVP2,2013-11-19 01:56:00,
2013-11-18 17:57:00,52.7,51.3,29.80,WSW,251,1.0,12.0,95,0.03,,,0.47,WUHU216DAVISVP2,2013-11-19 01:57:00,
2013-11-18 17:59:00,52.8,51.4,29.79,WNW,288,3.0,12.0,95,0.03,,,0.47,WUHU216DAVISVP2,2013-11-19 01:59:00,
2013-11-18 18:00:00,52.8,51.4,29.79,SW,220,2.0,12.0,95,0.03,,,0.47,WUHU216DAVISVP2,2013-11-19 02:00:00,
2013-11-18 18:01:00,52.8,51.4,29.79,SW,234,6.0,12.0,95,0.03,,,0.47,WUHU216DAVISVP2,2013-11-19 02:01:00,
2013-11-18 18:02:00,52.8,51.4,29.79,SSW,207,1.0,12.0,95,0.03,,,0.47,WUHU216DAVISVP2,2013-11-19 02:02:00,
2013-11-18 18:04:00,52.9,51.5,29.79,South,177,1.0,12.0,95,0.03,,,0.47,WUHU216DAVISVP2,2013-11-19 02:04:00,
2013-11-18 18:05:00,52.9,51.5,29.79,ESE,109,2.0,12.0,95,0.03,,,0.47,WUHU216DAVISVP2,2013-11-19 02:05:00,
2013-11-18 18:07:00,52.8,51.4,29.79,WSW,255,3.0,9.0,95,0.03,,,0.47,WUHU216DAVISVP2,2013-11-19 02:07:00,
2013-11-18 18:09:00,52.9,51.5,29.79,WSW,238,0.0,6.0,95,0.03,,,0.47,WUHU216DAVISVP2,2013-11-19 02:09:00,
2013-11-18 18:10:00,52.9,51.5,29.79,ENE,70,1.0,6.0,95,0.02,,,0.47,WUHU216DAVISVP2,2013-11-19 02:10:00,
2013-11-18 18:11:00,52.9,51.5,29.79,ESE,103,3.0,6.0,95,0.02,,,0.47,WUHU216DAVISVP2,2013-11-19 02:11:00,
2013-11-18 18:12:00,52.9,51.5,29.79,SSE,152,1.0,6.0,95,0.02,,,0.47,WUHU216DAVISVP2,2013-11-19 02:12:00,
2013-11-18 18:14:00,52.9,51.5,29.79,SE,127,0.0,10.0,95,0.02,,,0.47,WUHU216DAVISVP2,2013-11-19 02:14:00,
2013-11-18 18:15:00,52.9,51.5,29.79,SSW,203,0.0,10.0,95,0.02,,,0.47,WUHU216DAVISVP2,2013-11-19 02:15:00,
2013-11-18 18:16:00,52.9,51.5,29.79,SE,138,4.0,10.0,95,0.02,,,0.47,WUHU216DAVISVP2,2013-11-19 02:16:00,
2013-11-18 18:17:00,52.9,51.5,29.79,SSE,168,4.0,10.0,95,0.03,,,0.48,WUHU216DAVISVP2,2013-11-19 02:17:00,
2013-11-18 18:18:00,52.9,51.5,29.79,SE,146,3.0,10.0,95,0.03,,,0.48,WUHU216DAVISVP2,2013-11-19 02:18:00,
2013-11-18 18:19:00,53.0,51.6,29.79,NNE,20,0.0,10.0,95,0.03,,,0.48,WUHU216DAVISVP2,2013-11-19 02:19:00,
2013-11-18 18:21:00,53.0,51.6,29.79,East,96,2.0,10.0,95,0.02,,,0.48,WUHU216DAVISVP2,2013-11-19 02:21:00,
2013-11-18 18:22:00,53.0,51.6,29.79,ENE,77,3.0,10.0,95,0.02,,,0.48,WUHU216DAVISVP2,2013-11-19 02:22:00,
2013-11-18 18:23:00,53.0,51.6,29.79,West,259,1.0,10.0,95,0.02,,,0.48,WUHU216DAVISVP2,2013-11-19 02:23:00,
2013-11-18 18:25:00,53.0,51.6,29.79,SSE,154,0.0,10.0,95,0.02,,,0.48,WUHU216DAVISVP2,2013-11-19 02:25:00,
2013-11-18 18:27:00,53.1,51.7,29.79,ESE,121,4.0,10.0,95,0.02,,,0.48,WUHU216DAVISVP2,2013-11-19 02:27:00,
2013-11-18 18:28:00,53.1,51.7,29.79,SSE,147,2.0,10.0,95,0.02,,,0.48,WUHU216DAVISVP2,2013-11-19 02:28:00,
2013-11-18 18:30:00,53.1,51.7,29.79,SSE,152,0.0,10.0,95,0.02,,,0.48,WUHU216DAVISVP2,2013-11-19 02:30:00,
2013-11-18 18:32:00,53.2,51.8,29.79,SE,124,1.0,10.0,95,0.02,,,0.48,WUHU216DAVISVP2,2013-11-19 02:32:00,
2013-11-18 18:33:00,53.2,51.8,29.79,SE,146,1.0,10.0,95,0.02,,,0.48,WUHU216DAVISVP2,2013-11-19 02:33:00,
2013-11-18 18:34:00,53.2,51.8,29.79,SSW,201,1.0,10.0,95,0.02,,,0.48,WUHU216DAVISVP2,2013-11-19 02:34:00,
2013-11-18 18:35:00,53.2,51.8,29.79,SE,135,2.0,10.0,95,0.02,,,0.48,WUHU216DAVISVP2,2013-11-19 02:35:00,
2013-11-18 18:38:00,53.2,51.8,29.78,North,1,2.0,9.0,95,0.01,,,0.48,WUHU216DAVISVP2,2013-11-19 02:38:00,
2013-11-18 18:39:00,53.2,51.8,29.79,SSE,151,4.0,9.0,95,0.01,,,0.48,WUHU216DAVISVP2,2013-11-19 02:39:00,
2013-11-18 18:40:00,53.2,51.8,29.79,ESE,106,0.0,9.0,95,0.02,,,0.49,WUHU216DAVISVP2,2013-11-19 02:40:00,
2013-11-18 18:43:00,53.1,51.7,29.78,South,172,1.0,9.0,95,0.02,,,0.49,WUHU216DAVISVP2,2013-11-19 02:43:00,
2013-11-18 18:44:00,53.1,51.7,29.78,ESE,106,1.0,9.0,95,0.02,,,0.49,WUHU216DAVISVP2,2013-11-19 02:44:00,
2013-11-18 18:45:00,53.1,51.7,29.78,SE,137,1.0,9.0,95,0.02,,,0.49,WUHU216DAVISVP2,2013-11-19 02:45:00,
2013-11-18 18:48:00,53.1,51.7,29.79,SSE,154,2.0,9.0,95,0.03,,,0.50,WUHU216DAVISVP2,2013-11-19 02:48:00,
2013-11-18 18:49:00,53.1,51.7,29.79,ESE,113,3.0,9.0,95,0.03,,,0.50,WUHU216DAVISVP2,2013-11-19 02:49:00,
2013-11-18 18:50:00,53.0,51.6,29.79,South,179,1.0,9.0,95,0.04,,,0.51,WUHU216DAVISVP2,2013-11-19 02:50:00,
2013-11-18 18:54:00,53.0,51.6,29.79,SW,216,2.0,9.0,95,0.05,,,0.52,WUHU216DAVISVP2,2013-11-19 02:54:00,
2013-11-18 18:55:00,53.0,51.6,29.79,South,177,1.0,9.0,95,0.05,,,0.52,WUHU216DAVISVP2,2013-11-19 02:55:00,
2013-11-18 18:59:00,52.9,51.8,29.79,SE,129,0.0,9.0,96,0.07,,,0.54,WUHU216DAVISVP2,2013-11-19 02:59:00,
2013-11-18 19:00:00,52.9,51.8,29.79,SE,129,0.0,9.0,96,0.07,,,0.54,WUHU216DAVISVP2,2013-11-19 03:00:00,
2013-11-18 19:04:00,52.8,51.7,29.79,SSW,203,1.0,7.0,96,0.07,,,0.54,WUHU216DAVISVP2,2013-11-19 03:04:00,
2013-11-18 19:05:00,52.8,51.7,29.79,SSW,210,0.0,7.0,96,0.07,,,0.54,WUHU216DAVISVP2,2013-11-19 03:05:00,
2013-11-18 19:06:00,52.8,51.7,29.79,SE,137,1.0,7.0,96,0.07,,,0.54,WUHU216DAVISVP2,2013-11-19 03:06:00,
2013-11-18 19:09:00,52.8,51.7,29.79,SSE,153,1.0,7.0,96,0.08,,,0.55,WUHU216DAVISVP2,2013-11-19 03:09:00,
2013-11-18 19:10:00,52.8,51.7,29.79,East,84,2.0,7.0,96,0.08,,,0.56,WUHU216DAVISVP2,2013-11-19 03:10:00,
2013-11-18 19:11:00,52.8,51.7,29.79,South,191,0.0,7.0,96,0.09,,,0.56,WUHU216DAVISVP2,2013-11-19 03:11:00,
2013-11-18 19:12:00,52.7,51.6,29.79,SW,218,1.0,7.0,96,0.09,,,0.56,WUHU216DAVISVP2,2013-11-19 03:12:00,
2013-11-18 19:14:00,52.7,51.6,29.79,SSE,149,0.0,7.0,96,0.10,,,0.57,WUHU216DAVISVP2,2013-11-19 03:14:00,
2013-11-18 19:15:00,52.7,51.6,29.79,ENE,64,2.0,7.0,96,0.10,,,0.57,WUHU216DAVISVP2,2013-11-19 03:15:00,
2013-11-18 19:16:00,52.7,51.6,29.79,WSW,238,1.0,8.0,96,0.10,,,0.57,WUHU216DAVISVP2,2013-11-19 03:16:00,
2013-11-18 19:17:00,52.7,51.6,29.79,SE,145,2.0,8.0,96,0.10,,,0.57,WUHU216DAVISVP2,2013-11-19 03:17:00,
2013-11-18 19:20:00,52.8,51.7,29.79,SE,131,1.0,8.0,96,0.10,,,0.58,WUHU216DAVISVP2,2013-11-19 03:20:00,
2013-11-18 19:21:00,52.8,51.7,29.79,SE,143,0.0,8.0,96,0.10,,,0.58,WUHU216DAVISVP2,2013-11-19 03:21:00,
2013-11-18 19:22:00,52.8,51.7,29.79,East,96,1.0,8.0,96,0.11,,,0.59,WUHU216DAVISVP2,2013-11-19 03:22:00,
2013-11-18 19:23:00,52.7,51.6,29.79,SSE,154,0.0,8.0,96,0.11,,,0.60,WUHU216DAVISVP2,2013-11-19 03:23:00,
2013-11-18 19:25:00,52.7,51.6,29.79,SSE,160,0.0,8.0,96,0.12,,,0.60,WUHU216DAVISVP2,2013-11-19 03:25:00,
2013-11-18 19:26:00,52.7,51.6,29.79,South,175,0.0,8.0,96,0.12,,,0.60,WUHU216DAVISVP2,2013-11-19 03:26:00,
2013-11-18 19:27:00,52.7,51.6,29.79,SSE,161,1.0,8.0,96,0.12,,,0.60,WUHU216DAVISVP2,2013-11-19 03:27:00,
2013-11-18 19:29:00,52.7,51.6,29.79,SSE,150,0.0,8.0,96,0.12,,,0.60,WUHU216DAVISVP2,2013-11-19 03:29:00,
2013-11-18 19:30:00,52.7,51.6,29.79,West,268,2.0,8.0,96,0.13,,,0.61,WUHU216DAVISVP2,2013-11-19 03:30:00,
2013-11-18 19:31:00,52.7,51.6,29.79,West,259,0.0,8.0,96,0.13,,,0.61,WUHU216DAVISVP2,2013-11-19 03:31:00,
2013-11-18 19:32:00,52.7,51.6,29.79,NE,41,0.0,8.0,96,0.13,,,0.61,WUHU216DAVISVP2,2013-11-19 03:32:00,
2013-11-18 19:34:00,52.7,51.6,29.79,SW,232,0.0,8.0,96,0.14,,,0.62,WUHU216DAVISVP2,2013-11-19 03:34:00,
2013-11-18 19:36:00,52.6,51.5,29.79,ESE,108,0.0,6.0,96,0.14,,,0.62,WUHU216DAVISVP2,2013-11-19 03:36:00,
2013-11-18 19:37:00,52.7,51.6,29.79,SE,134,1.0,4.0,96,0.14,,,0.62,WUHU216DAVISVP2,2013-11-19 03:37:00,
2013-11-18 19:38:00,52.6,51.5,29.79,SE,131,0.0,4.0,96,0.14,,,0.62,WUHU216DAVISVP2,2013-11-19 03:38:00,
2013-11-18 19:39:00,52.6,51.5,29.78,SE,124,0.0,6.0,96,0.14,,,0.63,WUHU216DAVISVP2,2013-11-19 03:39:00,
2013-11-18 19:41:00,52.6,51.5,29.78,ENE,60,0.0,6.0,96,0.14,,,0.63,WUHU216DAVISVP2,2013-11-19 03:41:00,
2013-11-18 19:42:00,52.6,51.5,29.78,South,187,3.0,6.0,96,0.14,,,0.63,WUHU216DAVISVP2,2013-11-19 03:42:00,
2013-11-18 19:43:00,52.7,51.6,29.78,South,191,1.0,6.0,96,0.14,,,0.63,WUHU216DAVISVP2,2013-11-19 03:43:00,
2013-11-18 19:45:00,52.7,51.8,29.79,East,98,0.0,6.0,97,0.15,,,0.64,WUHU216DAVISVP2,2013-11-19 03:45:00,
2013-11-18 19:46:00,52.7,51.8,29.79,SSE,153,0.0,6.0,97,0.15,,,0.64,WUHU216DAVISVP2,2013-11-19 03:46:00,
2013-11-18 19:47:00,52.7,51.8,29.79,SW,231,0.0,6.0,97,0.15,,,0.64,WUHU216DAVISVP2,2013-11-19 03:47:00,
2013-11-18 19:49:00,52.7,51.8,29.79,ESE,115,0.0,6.0,97,0.15,,,0.65,WUHU216DAVISVP2,2013-11-19 03:49:00,
2013-11-18 19:50:00,52.7,51.8,29.79,SW,228,0.0,6.0,97,0.14,,,0.65,WUHU216DAVISVP2,2013-11-19 03:50:00,
2013-11-18 19:51:00,52.7,51.8,29.79,WNW,285,0.0,6.0,97,0.14,,,0.65,WUHU216DAVISVP2,2013-11-19 03:51:00,
2013-11-18 19:52:00,52.7,51.8,29.79,ESE,122,1.0,6.0,97,0.14,,,0.65,WUHU216DAVISVP2,2013-11-19 03:52:00,
2013-11-18 19:54:00,52.7,51.8,29.79,SW,236,0.0,6.0,97,0.14,,,0.66,WUHU216DAVISVP2,2013-11-19 03:54:00,
2013-11-18 19:55:00,52.7,51.8,29.79,South,175,0.0,6.0,97,0.14,,,0.66,WUHU216DAVISVP2,2013-11-19 03:55:00,
2013-11-18 19:56:00,52.7,51.8,29.79,SW,236,0.0,6.0,97,0.14,,,0.66,WUHU216DAVISVP2,2013-11-19 03:56:00,
2013-11-18 19:57:00,52.7,51.8,29.79,SSW,202,0.0,6.0,97,0.15,,,0.67,WUHU216DAVISVP2,2013-11-19 03:57:00,
2013-11-18 19:59:00,52.7,51.8,29.79,SSE,150,0.0,5.0,97,0.13,,,0.67,WUHU216DAVISVP2,2013-11-19 03:59:00,
2013-11-18 20:01:00,52.7,51.8,29.79,SSE,149,1.0,5.0,97,0.13,,,0.67,WUHU216DAVISVP2,2013-11-19 04:01:00,
2013-11-18 20:02:00,52.7,51.8,29.79,SE,136,0.0,5.0,97,0.13,,,0.67,WUHU216DAVISVP2,2013-11-19 04:02:00,
2013-11-18 20:03:00,52.7,51.8,29.79,SE,141,0.0,5.0,97,0.14,,,0.68,WUHU216DAVISVP2,2013-11-19 04:03:00,
2013-11-18 20:04:00,52.7,51.8,29.79,SSE,160,1.0,4.0,97,0.14,,,0.68,WUHU216DAVISVP2,2013-11-19 04:04:00,
2013-11-18 20:06:00,52.7,51.9,29.79,SSE,153,0.0,4.0,97,0.14,,,0.68,WUHU216DAVISVP2,2013-11-19 04:06:00,
2013-11-18 20:07:00,52.7,51.9,29.79,West,266,0.0,4.0,97,0.14,,,0.68,WUHU216DAVISVP2,2013-11-19 04:07:00,
2013-11-18 20:08:00,52.7,51.9,29.79,SSE,153,0.0,4.0,97,0.14,,,0.68,WUHU216DAVISVP2,2013-11-19 04:08:00,
2013-11-18 20:10:00,52.8,51.9,29.79,East,87,1.0,6.0,97,0.13,,,0.68,WUHU216DAVISVP2,2013-11-19 04:10:00,
2013-11-18 20:12:00,52.7,51.9,29.79,ESE,110,0.0,6.0,97,0.12,,,0.68,WUHU216DAVISVP2,2013-11-19 04:12:00,
2013-11-18 20:13:00,52.8,52.0,29.79,ESE,114,0.0,6.0,97,0.12,,,0.68,WUHU216DAVISVP2,2013-11-19 04:13:00,
2013-11-18 20:15:00,52.8,52.0,29.79,SE,133,0.0,6.0,97,0.11,,,0.68,WUHU216DAVISVP2,2013-11-19 04:15:00,
2013-11-18 20:17:00,52.8,52.0,29.79,SSE,154,0.0,6.0,97,0.11,,,0.68,WUHU216DAVISVP2,2013-11-19 04:17:00,
2013-11-18 20:18:00,52.8,52.0,29.79,SSW,198,2.0,6.0,97,0.12,,,0.69,WUHU216DAVISVP2,2013-11-19 04:18:00,
2013-11-18 20:20:00,52.8,52.0,29.79,SSW,196,1.0,6.0,97,0.11,,,0.69,WUHU216DAVISVP2,2013-11-19 04:20:00,
2013-11-18 20:22:00,52.8,52.0,29.79,SE,131,0.0,6.0,97,0.10,,,0.69,WUHU216DAVISVP2,2013-11-19 04:22:00,
2013-11-18 20:23:00,52.8,52.0,29.79,SE,130,0.0,6.0,97,0.09,,,0.69,WUHU216DAVISVP2,2013-11-19 04:23:00,
2013-11-18 20:24:00,52.8,52.0,29.79,SSE,165,0.0,6.0,97,0.09,,,0.69,WUHU216DAVISVP2,2013-11-19 04:24:00,
2013-11-18 20:25:00,52.9,52.0,29.79,West,264,0.0,6.0,97,0.09,,,0.69,WUHU216DAVISVP2,2013-11-19 04:25:00,
2013-11-18 20:27:00,52.9,52.0,29.79,South,172,0.0,6.0,97,0.09,,,0.69,WUHU216DAVISVP2,2013-11-19 04:27:00,
2013-11-18 20:29:00,52.9,52.0,29.79,South,185,0.0,6.0,97,0.10,,,0.70,WUHU216DAVISVP2,2013-11-19 04:29:00,
2013-11-18 20:30:00,52.9,52.0,29.79,East,100,0.0,6.0,97,0.09,,,0.70,WUHU216DAVISVP2,2013-11-19 04:30:00,
2013-11-18 20:32:00,52.9,52.0,29.79,SSE,167,0.0,6.0,97,0.09,,,0.70,WUHU216DAVISVP2,2013-11-19 04:32:00,
2013-11-18 20:33:00,52.9,52.0,29.79,SE,141,2.0,6.0,97,0.09,,,0.70,WUHU216DAVISVP2,2013-11-19 04:33:00,
2013-11-18 20:34:00,52.9,52.0,29.79,SSE,148,3.0,5.0,97,0.08,,,0.70,WUHU216DAVISVP2,2013-11-19 04:34:00,
2013-11-18 20:36:00,53.0,52.1,29.79,SSW,207,0.0,5.0,97,0.08,,,0.70,WUHU216DAVISVP2,2013-11-19 04:36:00,
2013-11-18 20:37:00,53.0,52.1,29.78,SSE,147,0.0,5.0,97,0.08,,,0.70,WUHU216DAVISVP2,2013-11-19 04:37:00,
2013-11-18 20:38:00,53.0,52.1,29.78,SSE,165,1.0,5.0,97,0.08,,,0.70,WUHU216DAVISVP2,2013-11-19 04:38:00,
2013-11-18 20:39:00,53.0,52.1,29.79,SE,125,0.0,5.0,97,0.07,,,0.70,WUHU216DAVISVP2,2013-11-19 04:39:00,
2013-11-18 20:41:00,53.1,52.2,29.79,SW,223,0.0,5.0,97,0.07,,,0.70,WUHU216DAVISVP2,2013-11-19 04:41:00,
2013-11-18 20:42:00,53.1,52.2,29.79,South,170,2.0,5.0,97,0.08,,,0.71,WUHU216DAVISVP2,2013-11-19 04:42:00,
2013-11-18 20:43:00,53.1,52.2,29.79,South,186,3.0,5.0,97,0.08,,,0.71,WUHU216DAVISVP2,2013-11-19 04:43:00,
2013-11-18 20:44:00,53.2,52.3,29.79,East,86,1.0,5.0,97,0.07,,,0.71,WUHU216DAVISVP2,2013-11-19 04:44:00,
2013-11-18 20:45:00,53.2,52.3,29.79,SSE,151,1.0,5.0,97,0.07,,,0.71,WUHU216DAVISVP2,2013-11-19 04:45:00,
2013-11-18 20:46:00,53.2,52.3,29.79,SE,139,1.0,5.0,97,0.08,,,0.72,WUHU216DAVISVP2,2013-11-19 04:46:00,
2013-11-18 20:47:00,53.2,52.3,29.78,SE,140,0.0,5.0,97,0.07,,,0.72,WUHU216DAVISVP2,2013-11-19 04:47:00,
2013-11-18 20:48:00,53.2,52.3,29.78,SE,143,1.0,5.0,97,0.07,,,0.72,WUHU216DAVISVP2,2013-11-19 04:48:00,
2013-11-18 20:49:00,53.2,52.3,29.78,South,184,0.0,5.0,97,0.07,,,0.72,WUHU216DAVISVP2,2013-11-19 04:49:00,
2013-11-18 20:50:00,53.2,52.3,29.79,SSW,204,0.0,5.0,97,0.07,,,0.72,WUHU216DAVISVP2,2013-11-19 04:50:00,
2013-11-18 20:51:00,53.2,52.3,29.79,ESE,122,1.0,5.0,97,0.07,,,0.72,WUHU216DAVISVP2,2013-11-19 04:51:00,
2013-11-18 20:53:00,53.2,52.3,29.79,SSW,212,0.0,5.0,97,0.07,,,0.72,WUHU216DAVISVP2,2013-11-19 04:53:00,
2013-11-18 20:54:00,53.2,52.3,29.79,NE,34,0.0,6.0,97,0.07,,,0.73,WUHU216DAVISVP2,2013-11-19 04:54:00,
2013-11-18 20:55:00,53.2,52.3,29.79,SE,131,0.0,6.0,97,0.07,,,0.73,WUHU216DAVISVP2,2013-11-19 04:55:00,
2013-11-18 20:57:00,53.2,52.3,29.79,SSE,155,0.0,6.0,97,0.06,,,0.73,WUHU216DAVISVP2,2013-11-19 04:57:00,
2013-11-18 20:58:00,53.3,52.4,29.79,ESE,122,1.0,6.0,97,0.06,,,0.73,WUHU216DAVISVP2,2013-11-19 04:58:00,
2013-11-18 20:59:00,53.3,52.4,29.79,SW,234,0.0,7.0,97,0.07,,,0.74,WUHU216DAVISVP2,2013-11-19 04:59:00,
2013-11-18 21:00:00,53.3,52.4,29.79,SSW,208,1.0,7.0,97,0.07,,,0.74,WUHU216DAVISVP2,2013-11-19 05:00:00,
2013-11-18 21:01:00,53.3,52.4,29.79,WSW,255,0.0,7.0,97,0.08,,,0.75,WUHU216DAVISVP2,2013-11-19 05:01:00,
2013-11-18 21:06:00,53.3,52.4,29.79,South,175,0.0,7.0,97,0.07,,,0.75,WUHU216DAVISVP2,2013-11-19 05:06:00,
2013-11-18 21:11:00,53.3,52.4,29.79,WSW,245,0.0,7.0,97,0.08,,,0.76,WUHU216DAVISVP2,2013-11-19 05:11:00,
2013-11-18 21:12:00,53.3,52.4,29.79,WSW,243,0.0,7.0,97,0.08,,,0.76,WUHU216DAVISVP2,2013-11-19 05:12:00,
2013-11-18 21:16:00,53.3,52.4,29.79,ESE,122,1.0,7.0,97,0.09,,,0.77,WUHU216DAVISVP2,2013-11-19 05:16:00,
2013-11-18 21:17:00,53.4,52.5,29.80,SSE,150,1.0,7.0,97,0.09,,,0.77,WUHU216DAVISVP2,2013-11-19 05:17:00,
2013-11-18 21:21:00,53.4,52.5,29.80,SSW,213,6.0,6.0,97,0.08,,,0.77,WUHU216DAVISVP2,2013-11-19 05:21:00,
2013-11-18 21:22:00,53.4,52.5,29.80,WNW,288,6.0,7.0,97,0.08,,,0.77,WUHU216DAVISVP2,2013-11-19 05:22:00,
2013-11-18 21:26:00,53.5,52.4,29.79,SSW,204,0.0,9.0,96,0.08,,,0.77,WUHU216DAVISVP2,2013-11-19 05:26:00,
2013-11-18 21:27:00,53.5,52.4,29.79,SE,124,0.0,9.0,96,0.08,,,0.77,WUHU216DAVISVP2,2013-11-19 05:27:00,
2013-11-18 21:28:00,53.5,52.4,29.79,SW,221,2.0,9.0,96,0.07,,,0.77,WUHU216DAVISVP2,2013-11-19 05:28:00,
2013-11-18 21:31:00,53.6,52.5,29.80,West,265,5.0,11.0,96,0.07,,,0.77,WUHU216DAVISVP2,2013-11-19 05:31:00,
2013-11-18 21:32:00,53.6,52.5,29.80,WNW,288,1.0,11.0,96,0.07,,,0.77,WUHU216DAVISVP2,2013-11-19 05:32:00,
2013-11-18 21:33:00,53.6,52.5,29.80,SSW,213,3.0,11.0,96,0.07,,,0.77,WUHU216DAVISVP2,2013-11-19 05:33:00,
2013-11-18 21:37:00,53.5,52.4,29.80,WSW,249,0.0,11.0,96,0.07,,,0.77,WUHU216DAVISVP2,2013-11-19 05:37:00,
2013-11-18 21:38:00,53.5,52.4,29.80,NNW,331,2.0,11.0,96,0.07,,,0.77,WUHU216DAVISVP2,2013-11-19 05:38:00,
2013-11-18 21:42:00,53.5,52.4,29.80,NNW,341,1.0,11.0,96,0.07,,,0.78,WUHU216DAVISVP2,2013-11-19 05:42:00,
2013-11-18 21:43:00,53.5,52.4,29.80,WSW,257,0.0,11.0,96,0.07,,,0.78,WUHU216DAVISVP2,2013-11-19 05:43:00,
2013-11-18 21:47:00,53.5,52.4,29.80,SE,143,1.0,11.0,96,0.06,,,0.78,WUHU216DAVISVP2,2013-11-19 05:47:00,
2013-11-18 21:48:00,53.5,52.4,29.80,SE,132,0.0,11.0,96,0.06,,,0.78,WUHU216DAVISVP2,2013-11-19 05:48:00,
2013-11-18 21:49:00,53.4,52.3,29.80,SSW,213,1.0,11.0,96,0.06,,,0.78,WUHU216DAVISVP2,2013-11-19 05:49:00,
2013-11-18 21:52:00,53.4,52.3,29.80,South,188,1.0,11.0,96,0.06,,,0.78,WUHU216DAVISVP2,2013-11-19 05:52:00,
2013-11-18 21:53:00,53.4,52.3,29.80,SE,131,2.0,11.0,96,0.06,,,0.78,WUHU216DAVISVP2,2013-11-19 05:53:00,
2013-11-18 21:54:00,53.4,52.3,29.80,WSW,243,4.0,11.0,96,0.05,,,0.78,WUHU216DAVISVP2,2013-11-19 05:54:00,
2013-11-18 21:57:00,53.4,52.3,29.80,SE,126,0.0,11.0,96,0.05,,,0.78,WUHU216DAVISVP2,2013-11-19 05:57:00,
2013-11-18 21:58:00,53.4,52.3,29.80,SW,216,1.0,11.0,96,0.05,,,0.78,WUHU216DAVISVP2,2013-11-19 05:58:00,
2013-11-18 21:59:00,53.4,52.3,29.80,SW,236,5.0,11.0,96,0.05,,,0.78,WUHU216DAVISVP2,2013-11-19 05:59:00,
2013-11-18 22:03:00,53.5,52.4,29.80,SSW,192,1.0,12.0,96,0.03,,,0.78,WUHU216DAVISVP2,2013-11-19 06:03:00,
2013-11-18 22:04:00,53.4,52.3,29.80,WSW,243,2.0,12.0,96,0.03,,,0.78,WUHU216DAVISVP2,2013-11-19 06:04:00,
2013-11-18 22:08:00,53.4,52.3,29.80,SSW,208,0.0,12.0,96,0.02,,,0.78,WUHU216DAVISVP2,2013-11-19 06:08:00,
2013-11-18 22:09:00,53.4,52.3,29.80,South,176,1.0,12.0,96,0.02,,,0.78,WUHU216DAVISVP2,2013-11-19 06:09:00,
2013-11-18 22:10:00,53.4,52.3,29.80,ENE,65,1.0,12.0,96,0.02,,,0.78,WUHU216DAVISVP2,2013-11-19 06:10:00,
2013-11-18 22:13:00,53.4,52.3,29.80,WSW,257,0.0,12.0,96,0.02,,,0.78,WUHU216DAVISVP2,2013-11-19 06:13:00,
2013-11-18 22:14:00,53.4,52.3,29.80,South,172,1.0,12.0,96,0.02,,,0.78,WUHU216DAVISVP2,2013-11-19 06:14:00,
2013-11-18 22:15:00,53.4,52.3,29.80,SW,229,0.0,12.0,96,0.01,,,0.78,WUHU216DAVISVP2,2013-11-19 06:15:00,
2013-11-18 22:19:00,53.5,52.4,29.80,SE,142,4.0,9.0,96,0.01,,,0.78,WUHU216DAVISVP2,2013-11-19 06:19:00,
2013-11-18 22:20:00,53.6,52.5,29.80,WSW,255,1.0,10.0,96,0.01,,,0.78,WUHU216DAVISVP2,2013-11-19 06:20:00,
2013-11-18 22:24:00,53.7,52.6,29.80,South,188,0.0,11.0,96,0.01,,,0.78,WUHU216DAVISVP2,2013-11-19 06:24:00,
2013-11-18 22:25:00,53.7,52.6,29.80,WSW,248,2.0,11.0,96,0.01,,,0.78,WUHU216DAVISVP2,2013-11-19 06:25:00,
2013-11-18 22:26:00,53.7,52.6,29.80,NNE,32,2.0,11.0,96,0.01,,,0.78,WUHU216DAVISVP2,2013-11-19 06:26:00,
2013-11-18 22:29:00,53.7,52.6,29.80,SW,215,0.0,11.0,96,0.02,,,0.79,WUHU216DAVISVP2,2013-11-19 06:29:00,
2013-11-18 22:30:00,53.7,52.6,29.80,SW,221,1.0,11.0,96,0.02,,,0.79,WUHU216DAVISVP2,2013-11-19 06:30:00,
2013-11-18 22:31:00,53.7,52.6,29.80,SW,235,0.0,11.0,96,0.02,,,0.79,WUHU216DAVISVP2,2013-11-19 06:31:00,
2013-11-18 22:34:00,53.8,52.7,29.79,West,280,1.0,11.0,96,0.02,,,0.79,WUHU216DAVISVP2,2013-11-19 06:34:00,
2013-11-18 22:35:00,53.8,52.7,29.79,SSE,151,1.0,11.0,96,0.02,,,0.79,WUHU216DAVISVP2,2013-11-19 06:35:00,
2013-11-18 22:36:00,53.7,52.6,29.79,SW,217,3.0,11.0,96,0.02,,,0.79,WUHU216DAVISVP2,2013-11-19 06:36:00,
2013-11-18 22:37:00,53.7,52.6,29.79,West,281,3.0,11.0,96,0.02,,,0.79,WUHU216DAVISVP2,2013-11-19 06:37:00,
2013-11-18 22:39:00,53.7,52.6,29.79,ESE,115,1.0,10.0,96,0.02,,,0.79,WUHU216DAVISVP2,2013-11-19 06:39:00,
2013-11-18 22:40:00,53.7,52.6,29.79,SSW,207,0.0,10.0,96,0.02,,,0.79,WUHU216DAVISVP2,2013-11-19 06:40:00,
2013-11-18 22:41:00,53.7,52.6,29.79,SSE,158,1.0,10.0,96,0.02,,,0.79,WUHU216DAVISVP2,2013-11-19 06:41:00,
2013-11-18 22:42:00,53.7,52.6,29.79,ESE,114,2.0,10.0,96,0.01,,,0.79,WUHU216DAVISVP2,2013-11-19 06:42:00,
2013-11-18 22:45:00,53.7,52.6,29.79,SSE,163,1.0,10.0,96,0.02,,,0.80,WUHU216DAVISVP2,2013-11-19 06:45:00,
2013-11-18 22:46:00,53.7,52.6,29.79,ESE,116,1.0,10.0,96,0.02,,,0.80,WUHU216DAVISVP2,2013-11-19 06:46:00,
2013-11-18 22:48:00,53.7,52.6,29.79,SE,138,2.0,10.0,96,0.02,,,0.80,WUHU216DAVISVP2,2013-11-19 06:48:00,
2013-11-18 22:50:00,53.7,52.6,29.79,SE,135,0.0,10.0,96,0.02,,,0.80,WUHU216DAVISVP2,2013-11-19 06:50:00,
2013-11-18 22:51:00,53.7,52.6,29.79,West,271,0.0,10.0,96,0.02,,,0.80,WUHU216DAVISVP2,2013-11-19 06:51:00,
2013-11-18 22:53:00,53.7,52.6,29.79,ESE,117,3.0,15.0,96,0.02,,,0.80,WUHU216DAVISVP2,2013-11-19 06:53:00,
2013-11-18 22:55:00,53.7,52.6,29.79,WSW,240,0.0,15.0,96,0.02,,,0.80,WUHU216DAVISVP2,2013-11-19 06:55:00,
2013-11-18 22:56:00,53.7,52.6,29.79,WSW,238,1.0,15.0,96,0.02,,,0.80,WUHU216DAVISVP2,2013-11-19 06:56:00,
2013-11-18 22:57:00,53.7,52.6,29.79,SE,125,0.0,15.0,96,0.02,,,0.80,WUHU216DAVISVP2,2013-11-19 06:57:00,
2013-11-18 22:59:00,53.7,52.6,29.80,WSW,243,1.0,15.0,96,0.02,,,0.80,WUHU216DAVISVP2,2013-11-19 06:59:00,
2013-11-18 23:00:00,53.7,52.6,29.80,West,275,2.0,15.0,96,0.02,,,0.80,WUHU216DAVISVP2,2013-11-19 07:00:00,
2013-11-18 23:01:00,53.6,52.5,29.80,ESE,113,0.0,15.0,96,0.02,,,0.80,WUHU216DAVISVP2,2013-11-19 07:01:00,
2013-11-18 23:02:00,53.6,52.5,29.80,West,278,3.0,15.0,96,0.02,,,0.80,WUHU216DAVISVP2,2013-11-19 07:02:00,
2013-11-18 23:04:00,53.6,52.5,29.79,WSW,243,0.0,15.0,96,0.02,,,0.80,WUHU216DAVISVP2,2013-11-19 07:04:00,
2013-11-18 23:05:00,53.6,52.5,29.80,West,260,0.0,15.0,96,0.02,,,0.80,WUHU216DAVISVP2,2013-11-19 07:05:00,
2013-11-18 23:06:00,53.6,52.5,29.80,SW,223,0.0,15.0,96,0.02,,,0.80,WUHU216DAVISVP2,2013-11-19 07:06:00,
2013-11-18 23:07:00,53.6,52.5,29.80,WNW,293,2.0,15.0,96,0.02,,,0.80,WUHU216DAVISVP2,2013-11-19 07:07:00,
2013-11-18 23:08:00,53.5,52.4,29.80,SSE,165,0.0,15.0,96,0.02,,,0.80,WUHU216DAVISVP2,2013-11-19 07:08:00,
2013-11-18 23:09:00,53.5,52.4,29.80,SSE,163,1.0,15.0,96,0.02,,,0.80,WUHU216DAVISVP2,2013-11-19 07:09:00,
2013-11-18 23:10:00,53.5,52.4,29.80,SE,145,1.0,12.0,96,0.02,,,0.80,WUHU216DAVISVP2,2013-11-19 07:10:00,
2013-11-18 23:11:00,53.5,52.4,29.80,SW,224,0.0,12.0,96,0.02,,,0.80,WUHU216DAVISVP2,2013-11-19 07:11:00,
2013-11-18 23:12:00,53.5,52.4,29.80,West,275,0.0,12.0,96,0.02,,,0.80,WUHU216DAVISVP2,2013-11-19 07:12:00,
2013-11-18 23:13:00,53.5,52.4,29.80,SSE,160,1.0,12.0,96,0.02,,,0.80,WUHU216DAVISVP2,2013-11-19 07:13:00,
2013-11-18 23:15:00,53.4,52.3,29.80,NW,319,0.0,12.0,96,0.02,,,0.80,WUHU216DAVISVP2,2013-11-19 07:15:00,
2013-11-18 23:16:00,53.4,52.3,29.80,East,86,0.0,12.0,96,0.02,,,0.80,WUHU216DAVISVP2,2013-11-19 07:16:00,
2013-11-18 23:17:00,53.4,52.3,29.80,SSW,202,0.0,12.0,96,0.02,,,0.80,WUHU216DAVISVP2,2013-11-19 07:17:00,
2013-11-18 23:19:00,53.4,52.3,29.80,SSW,212,0.0,12.0,96,0.02,,,0.80,WUHU216DAVISVP2,2013-11-19 07:19:00,
2013-11-18 23:20:00,53.4,52.3,29.80,South,187,0.0,5.0,96,0.02,,,0.80,WUHU216DAVISVP2,2013-11-19 07:20:00,
2013-11-18 23:21:00,53.4,52.3,29.80,South,172,1.0,6.0,96,0.02,,,0.80,WUHU216DAVISVP2,2013-11-19 07:21:00,
2013-11-18 23:22:00,53.4,52.3,29.80,SE,124,1.0,10.0,96,0.02,,,0.80,WUHU216DAVISVP2,2013-11-19 07:22:00,
2013-11-18 23:24:00,53.4,52.3,29.80,West,281,0.0,10.0,96,0.02,,,0.80,WUHU216DAVISVP2,2013-11-19 07:24:00,
2013-11-18 23:25:00,53.5,52.4,29.80,WSW,243,5.0,10.0,96,0.02,,,0.80,WUHU216DAVISVP2,2013-11-19 07:25:00,
2013-11-18 23:26:00,53.5,52.4,29.80,SW,228,1.0,10.0,96,0.02,,,0.80,WUHU216DAVISVP2,2013-11-19 07:26:00,
2013-11-18 23:27:00,53.5,52.4,29.80,SSW,193,2.0,10.0,96,0.02,,,0.80,WUHU216DAVISVP2,2013-11-19 07:27:00,
2013-11-18 23:28:00,53.5,52.4,29.80,WSW,243,6.0,10.0,96,0.01,,,0.80,WUHU216DAVISVP2,2013-11-19 07:28:00,
2013-11-18 23:29:00,53.6,52.2,29.80,ENE,78,1.0,10.0,95,0.01,,,0.80,WUHU216DAVISVP2,2013-11-19 07:29:00,
2013-11-18 23:30:00,53.6,52.2,29.80,East,83,2.0,10.0,95,0.01,,,0.80,WUHU216DAVISVP2,2013-11-19 07:30:00,
2013-11-18 23:31:00,53.6,52.2,29.80,SW,221,3.0,10.0,95,0.01,,,0.80,WUHU216DAVISVP2,2013-11-19 07:31:00,
2013-11-18 23:32:00,53.6,52.2,29.80,ENE,70,2.0,10.0,95,0.01,,,0.80,WUHU216DAVISVP2,2013-11-19 07:32:00,
2013-11-18 23:33:00,53.6,52.2,29.80,SW,233,2.0,10.0,95,0.01,,,0.80,WUHU216DAVISVP2,2013-11-19 07:33:00,
2013-11-18 23:34:00,53.6,52.2,29.80,South,184,3.0,10.0,95,0.01,,,0.80,WUHU216DAVISVP2,2013-11-19 07:34:00,
2013-11-18 23:35:00,53.6,52.2,29.80,SSE,156,3.0,10.0,95,0.01,,,0.80,WUHU216DAVISVP2,2013-11-19 07:35:00,
2013-11-18 23:36:00,53.7,52.3,29.80,SSE,166,0.0,10.0,95,0.01,,,0.80,WUHU216DAVISVP2,2013-11-19 07:36:00,
2013-11-18 23:37:00,53.7,52.3,29.80,WSW,242,0.0,10.0,95,0.01,,,0.80,WUHU216DAVISVP2,2013-11-19 07:37:00,
2013-11-18 23:38:00,53.7,52.3,29.80,SSE,148,3.0,10.0,95,0.01,,,0.80,WUHU216DAVISVP2,2013-11-19 07:38:00,
2013-11-18 23:39:00,53.7,52.3,29.81,West,278,3.0,10.0,95,0.01,,,0.80,WUHU216DAVISVP2,2013-11-19 07:39:00,
2013-11-18 23:41:00,53.6,52.2,29.81,SW,224,2.0,8.0,95,0.01,,,0.80,WUHU216DAVISVP2,2013-11-19 07:41:00,
2013-11-18 23:42:00,53.6,52.2,29.81,SSW,200,2.0,8.0,95,0.01,,,0.80,WUHU216DAVISVP2,2013-11-19 07:42:00,
2013-11-18 23:43:00,53.6,52.2,29.81,SW,236,4.0,8.0,95,0.01,,,0.80,WUHU216DAVISVP2,2013-11-19 07:43:00,
2013-11-18 23:44:00,53.6,52.2,29.81,ESE,121,3.0,8.0,95,0.01,,,0.80,WUHU216DAVISVP2,2013-11-19 07:44:00,
2013-11-18 23:47:00,53.5,51.8,29.81,West,267,3.0,9.0,94,0.00,,,0.80,WUHU216DAVISVP2,2013-11-19 07:47:00,
2013-11-18 23:48:00,53.4,51.7,29.81,SE,146,0.0,9.0,94,0.00,,,0.80,WUHU216DAVISVP2,2013-11-19 07:48:00,
2013-11-18 23:49:00,53.4,52.0,29.81,SE,145,1.0,9.0,95,0.00,,,0.80,WUHU216DAVISVP2,2013-11-19 07:49:00,
2013-11-18 23:52:00,53.3,51.9,29.81,SW,224,4.0,9.0,95,0.00,,,0.80,WUHU216DAVISVP2,2013-11-19 07:52:00,
2013-11-18 23:53:00,53.3,51.9,29.81,WSW,255,2.0,10.0,95,0.00,,,0.80,WUHU216DAVISVP2,2013-11-19 07:53:00,
2013-11-18 23:54:00,53.3,51.9,29.81,WSW,247,2.0,10.0,95,0.00,,,0.80,WUHU216DAVISVP2,2013-11-19 07:54:00,
2013-11-18 23:57:00,53.3,51.9,29.81,SW,227,0.0,10.0,95,0.00,,,0.80,WUHU216DAVISVP2,2013-11-19 07:57:00,
2013-11-18 23:58:00,53.3,51.9,29.81,South,173,3.0,10.0,95,0.00,,,0.80,WUHU216DAVISVP2,2013-11-19 07:58:00,
2013-11-18 23:59:00,53.3,51.9,29.81,South,175,1.0,10.0,95,0.00,,,0.80,WUHU216DAVISVP2,2013-11-19 07:59:00,